Wetterdaten: Samstag, 27.05.2017
Datum Zeit Temp. Aussen Temp. o. S. +5cm Feuchte Auss BlattFeu 1 Luftdruck Regen Sonnenschein Regendauer Solar Windben Empfang
27.05.2017 00:00 20,8 C 20,0 C 17,2 C 68 % 0 lf 1017,8 hPa 0,0 l/m 0 min 0 min 0 W/m 8,4 km/h (2 Bft) 95,74 %
27.05.2017 00:02 20,7 C 20,0 C 17,2 C 68 % 0 lf 1017,8 hPa 0,0 l/m 0 min 0 min 0 W/m 12,6 km/h (3 Bft) 97,14 %
27.05.2017 00:04 20,7 C 20,0 C 17,8 C 69 % 0 lf 1017,8 hPa 0,0 l/m 0 min 0 min 0 W/m 10,5 km/h (2 Bft) 95,74 %
27.05.2017 00:06 20,6 C 20,0 C 17,8 C 68 % 0 lf 1017,8 hPa 0,0 l/m 0 min 0 min 0 W/m 12,6 km/h (3 Bft) 97,87 %
27.05.2017 00:10 20,6 C 20,0 C 17,8 C 69 % 0 lf 1017,8 hPa 0,0 l/m 0 min 0 min 0 W/m 12,6 km/h (3 Bft) 95,79 %
27.05.2017 00:12 20,5 C 20,0 C 17,8 C 69 % 0 lf 1017,7 hPa 0,0 l/m 0 min 0 min 0 W/m 10,5 km/h (2 Bft) 95,74 %
27.05.2017 00:14 20,4 C 20,0 C 17,8 C 69 % 0 lf 1017,7 hPa 0,0 l/m 0 min 0 min 0 W/m 10,5 km/h (2 Bft) 97,87 %
27.05.2017 00:16 20,4 C 20,0 C 17,8 C 69 % 0 lf 1017,7 hPa 0,0 l/m 0 min 0 min 0 W/m 14,6 km/h (3 Bft) 95,74 %
27.05.2017 00:18 20,4 C 20,0 C 17,8 C 69 % 0 lf 1017,7 hPa 0,0 l/m 0 min 0 min 0 W/m 12,6 km/h (3 Bft) 97,87 %
27.05.2017 00:20 20,4 C 20,0 C 17,8 C 69 % 0 lf 1017,7 hPa 0,0 l/m 0 min 0 min 0 W/m 16,7 km/h (3 Bft) 97,87 %
27.05.2017 00:22 20,3 C 20,0 C 17,8 C 70 % 0 lf 1017,7 hPa 0,0 l/m 0 min 0 min 0 W/m 12,6 km/h (3 Bft) 100,00 %
27.05.2017 00:24 20,3 C 20,0 C 17,8 C 70 % 0 lf 1017,7 hPa 0,0 l/m 0 min 0 min 0 W/m 12,6 km/h (3 Bft) 97,83 %
27.05.2017 00:26 20,3 C 20,0 C 17,8 C 70 % 0 lf 1017,7 hPa 0,0 l/m 0 min 0 min 0 W/m 12,6 km/h (3 Bft) 97,87 %
27.05.2017 00:28 20,3 C 20,0 C 17,8 C 70 % 0 lf 1017,6 hPa 0,0 l/m 0 min 0 min 0 W/m 10,5 km/h (2 Bft) 97,87 %
27.05.2017 00:30 20,3 C 20,0 C 17,8 C 70 % 0 lf 1017,7 hPa 0,0 l/m 0 min 0 min 0 W/m 10,5 km/h (2 Bft) 97,87 %
27.05.2017 00:32 20,2 C 20,0 C 17,2 C 70 % 0 lf 1017,6 hPa 0,0 l/m 0 min 0 min 0 W/m 10,5 km/h (2 Bft) 97,92 %
27.05.2017 00:34 20,2 C 20,0 C 17,2 C 70 % 0 lf 1017,7 hPa 0,0 l/m 0 min 0 min 0 W/m 12,6 km/h (3 Bft) 100,00 %
27.05.2017 00:36 20,2 C 20,0 C 17,2 C 70 % 0 lf 1017,7 hPa 0,0 l/m 0 min 0 min 0 W/m 8,4 km/h (2 Bft) 97,96 %
27.05.2017 00:38 20,2 C 20,0 C 17,2 C 70 % 0 lf 1017,6 hPa 0,0 l/m 0 min 0 min 0 W/m 10,5 km/h (2 Bft) 97,87 %
27.05.2017 00:40 20,2 C 20,0 C 17,2 C 70 % 0 lf 1017,6 hPa 0,0 l/m 0 min 0 min 0 W/m 14,6 km/h (3 Bft) 97,87 %
27.05.2017 00:42 20,1 C 20,0 C 17,2 C 70 % 0 lf 1017,6 hPa 0,0 l/m 0 min 0 min 0 W/m 14,6 km/h (3 Bft) 93,48 %
27.05.2017 00:44 20,1 C 20,0 C 17,8 C 70 % 0 lf 1017,5 hPa 0,0 l/m 0 min 0 min 0 W/m 14,6 km/h (3 Bft) 100,00 %
27.05.2017 00:46 20,1 C 19,4 C 17,2 C 70 % 0 lf 1017,5 hPa 0,0 l/m 0 min 0 min 0 W/m 12,6 km/h (3 Bft) 97,87 %
27.05.2017 00:48 20,1 C 19,4 C 17,2 C 70 % 0 lf 1017,6 hPa 0,0 l/m 0 min 0 min 0 W/m 12,6 km/h (3 Bft) 93,62 %
27.05.2017 00:50 20,1 C 19,4 C 17,2 C 70 % 0 lf 1017,6 hPa 0,0 l/m 0 min 0 min 0 W/m 16,7 km/h (3 Bft) 95,74 %
27.05.2017 00:52 20,0 C 19,4 C 17,2 C 70 % 0 lf 1017,6 hPa 0,0 l/m 0 min 0 min 0 W/m 10,5 km/h (2 Bft) 95,74 %
27.05.2017 00:54 20,0 C 18,9 C 17,2 C 70 % 0 lf 1017,6 hPa 0,0 l/m 0 min 0 min 0 W/m 12,6 km/h (3 Bft) 97,83 %
27.05.2017 00:56 19,9 C 18,9 C 16,7 C 70 % 0 lf 1017,6 hPa 0,0 l/m 0 min 0 min 0 W/m 12,6 km/h (3 Bft) 97,87 %
27.05.2017 00:58 19,9 C 19,4 C 16,7 C 70 % 0 lf 1017,6 hPa 0,0 l/m 0 min 0 min 0 W/m 10,5 km/h (2 Bft) 95,74 %
27.05.2017 01:00 19,9 C 19,4 C 16,7 C 71 % 0 lf 1017,6 hPa 0,0 l/m 0 min 0 min 0 W/m 10,5 km/h (2 Bft) 95,74 %
27.05.2017 01:02 19,9 C 19,4 C 16,7 C 71 % 0 lf 1017,6 hPa 0,0 l/m 0 min 0 min 0 W/m 12,6 km/h (3 Bft) 91,49 %
27.05.2017 01:04 19,9 C 19,4 C 17,2 C 71 % 0 lf 1017,6 hPa 0,0 l/m 0 min 0 min 0 W/m 12,6 km/h (3 Bft) 95,74 %
27.05.2017 01:06 19,8 C 18,9 C 16,7 C 71 % 0 lf 1017,5 hPa 0,0 l/m 0 min 0 min 0 W/m 12,6 km/h (3 Bft) 95,65 %
27.05.2017 01:08 19,8 C 18,9 C 16,7 C 71 % 0 lf 1017,5 hPa 0,0 l/m 0 min 0 min 0 W/m 12,6 km/h (3 Bft) 95,74 %
27.05.2017 01:10 19,8 C 18,9 C 16,7 C 71 % 0 lf 1017,5 hPa 0,0 l/m 0 min 0 min 0 W/m 12,6 km/h (3 Bft) 95,74 %
27.05.2017 01:12 19,7 C 19,4 C 17,2 C 71 % 0 lf 1017,5 hPa 0,0 l/m 0 min 0 min 0 W/m 12,6 km/h (3 Bft) 93,62 %
27.05.2017 01:14 19,7 C 19,4 C 17,2 C 71 % 0 lf 1017,5 hPa 0,0 l/m 0 min 0 min 0 W/m 12,6 km/h (3 Bft) 95,74 %
27.05.2017 01:16 19,7 C 19,4 C 17,2 C 71 % 0 lf 1017,4 hPa 0,0 l/m 0 min 0 min 0 W/m 10,5 km/h (2 Bft) 91,49 %
27.05.2017 01:18 19,7 C 19,4 C 17,2 C 71 % 0 lf 1017,4 hPa 0,0 l/m 0 min 0 min 0 W/m 12,6 km/h (3 Bft) 95,65 %
27.05.2017 01:20 19,7 C 19,4 C 17,2 C 71 % 0 lf 1017,4 hPa 0,0 l/m 0 min 0 min 0 W/m 12,6 km/h (3 Bft) 95,74 %
27.05.2017 01:22 19,6 C 18,9 C 17,2 C 71 % 0 lf 1017,5 hPa 0,0 l/m 0 min 0 min 0 W/m 10,5 km/h (2 Bft) 97,87 %
27.05.2017 01:24 19,6 C 18,9 C 16,7 C 71 % 0 lf 1017,5 hPa 0,0 l/m 0 min 0 min 0 W/m 10,5 km/h (2 Bft) 97,87 %
27.05.2017 01:26 19,6 C 18,9 C 16,7 C 71 % 0 lf 1017,5 hPa 0,0 l/m 0 min 0 min 0 W/m 10,5 km/h (2 Bft) 97,87 %
27.05.2017 01:28 19,6 C 18,9 C 16,7 C 72 % 0 lf 1017,5 hPa 0,0 l/m 0 min 0 min 0 W/m 10,5 km/h (2 Bft) 93,62 %
27.05.2017 01:30 19,6 C 18,9 C 16,1 C 72 % 0 lf 1017,4 hPa 0,0 l/m 0 min 0 min 0 W/m 10,5 km/h (2 Bft) 95,65 %
27.05.2017 01:32 19,5 C 18,9 C 16,1 C 72 % 0 lf 1017,4 hPa 0,0 l/m 0 min 0 min 0 W/m 10,5 km/h (2 Bft) 100,00 %
27.05.2017 01:34 19,5 C 18,9 C 16,1 C 72 % 0 lf 1017,4 hPa 0,0 l/m 0 min 0 min 0 W/m 8,4 km/h (2 Bft) 100,00 %
27.05.2017 01:36 19,4 C 18,9 C 16,7 C 72 % 0 lf 1017,5 hPa 0,0 l/m 0 min 0 min 0 W/m 8,4 km/h (2 Bft) 95,24 %
27.05.2017 01:38 19,4 C 18,9 C 16,7 C 72 % 0 lf 1017,4 hPa 0,0 l/m 0 min 0 min 0 W/m 10,5 km/h (2 Bft) 97,87 %
27.05.2017 01:40 19,4 C 18,9 C 16,7 C 72 % 0 lf 1017,4 hPa 0,0 l/m 0 min 0 min 0 W/m 8,4 km/h (2 Bft) 100,00 %
27.05.2017 01:42 19,4 C 18,9 C 16,7 C 72 % 0 lf 1017,5 hPa 0,0 l/m 0 min 0 min 0 W/m 8,4 km/h (2 Bft) 100,00 %
27.05.2017 01:44 19,3 C 18,9 C 16,7 C 72 % 0 lf 1017,4 hPa 0,0 l/m 0 min 0 min 0 W/m 8,4 km/h (2 Bft) 97,87 %
27.05.2017 01:46 19,3 C 18,9 C 16,7 C 72 % 0 lf 1017,5 hPa 0,0 l/m 0 min 0 min 0 W/m 10,5 km/h (2 Bft) 97,83 %
27.05.2017 01:48 19,3 C 18,9 C 16,1 C 72 % 0 lf 1017,5 hPa 0,0 l/m 0 min 0 min 0 W/m 10,5 km/h (2 Bft) 95,74 %
27.05.2017 01:50 19,3 C 18,9 C 16,7 C 72 % 0 lf 1017,5 hPa 0,0 l/m 0 min 0 min 0 W/m 8,4 km/h (2 Bft) 100,00 %
27.05.2017 01:52 19,3 C 18,9 C 16,1 C 73 % 0 lf 1017,4 hPa 0,0 l/m 0 min 0 min 0 W/m 8,4 km/h (2 Bft) 97,87 %
27.05.2017 01:54 19,2 C 18,9 C 16,1 C 73 % 0 lf 1017,4 hPa 0,0 l/m 0 min 0 min 0 W/m 10,5 km/h (2 Bft) 97,87 %
27.05.2017 01:56 19,2 C 18,9 C 16,1 C 73 % 0 lf 1017,5 hPa 0,0 l/m 0 min 0 min 0 W/m 8,4 km/h (2 Bft) 95,74 %
27.05.2017 01:58 19,2 C 18,9 C 16,1 C 73 % 0 lf 1017,4 hPa 0,0 l/m 0 min 0 min 0 W/m 6,3 km/h (2 Bft) 95,65 %
27.05.2017 02:00 19,2 C 18,9 C 16,1 C 73 % 0 lf 1017,5 hPa 0,0 l/m 0 min 0 min 0 W/m 6,3 km/h (2 Bft) 95,74 %
27.05.2017 02:02 19,2 C 18,3 C 15,6 C 73 % 0 lf 1017,4 hPa 0,0 l/m 0 min 0 min 0 W/m 6,3 km/h (2 Bft) 98,00 %
27.05.2017 02:04 19,2 C 18,3 C 15,6 C 73 % 0 lf 1017,4 hPa 0,0 l/m 0 min 0 min 0 W/m 8,4 km/h (2 Bft) 97,87 %
27.05.2017 02:06 19,1 C 18,3 C 15,6 C 73 % 0 lf 1017,4 hPa 0,0 l/m 0 min 0 min 0 W/m 6,3 km/h (2 Bft) 97,92 %
27.05.2017 02:08 19,1 C 18,3 C 15,6 C 73 % 0 lf 1017,5 hPa 0,0 l/m 0 min 0 min 0 W/m 8,4 km/h (2 Bft) 95,74 %
27.05.2017 02:10 19,1 C 18,3 C 15,6 C 73 % 0 lf 1017,4 hPa 0,0 l/m 0 min 0 min 0 W/m 6,3 km/h (2 Bft) 97,87 %
27.05.2017 02:12 19,1 C 18,3 C 15,6 C 73 % 0 lf 1017,4 hPa 0,0 l/m 0 min 0 min 0 W/m 6,3 km/h (2 Bft) 95,74 %
27.05.2017 02:14 19,0 C 18,3 C 15,0 C 73 % 0 lf 1017,4 hPa 0,0 l/m 0 min 0 min 0 W/m 4,2 km/h (1 Bft) 97,87 %
27.05.2017 02:16 19,0 C 17,8 C 15,0 C 73 % 0 lf 1017,4 hPa 0,0 l/m 0 min 0 min 0 W/m 6,3 km/h (2 Bft) 97,83 %
27.05.2017 02:18 18,9 C 17,8 C 15,0 C 73 % 0 lf 1017,4 hPa 0,0 l/m 0 min 0 min 0 W/m 4,2 km/h (1 Bft) 95,74 %
27.05.2017 02:20 18,9 C 17,8 C 14,4 C 74 % 0 lf 1017,4 hPa 0,0 l/m 0 min 0 min 0 W/m 6,3 km/h (2 Bft) 97,87 %
27.05.2017 02:22 18,9 C 17,8 C 14,4 C 74 % 0 lf 1017,4 hPa 0,0 l/m 0 min 0 min 0 W/m 4,2 km/h (1 Bft) 97,87 %
27.05.2017 02:24 18,8 C 17,2 C 14,4 C 74 % 0 lf 1017,4 hPa 0,0 l/m 0 min 0 min 0 W/m 4,2 km/h (1 Bft) 97,87 %
27.05.2017 02:26 18,8 C 17,2 C 14,4 C 74 % 0 lf 1017,4 hPa 0,0 l/m 0 min 0 min 0 W/m 4,2 km/h (1 Bft) 95,74 %
27.05.2017 02:28 18,8 C 17,2 C 13,9 C 73 % 0 lf 1017,4 hPa 0,0 l/m 0 min 0 min 0 W/m 6,3 km/h (2 Bft) 93,48 %
27.05.2017 02:30 18,7 C 17,2 C 13,9 C 73 % 0 lf 1017,4 hPa 0,0 l/m 0 min 0 min 0 W/m 4,2 km/h (1 Bft) 93,62 %
27.05.2017 02:32 18,7 C 17,2 C 13,9 C 74 % 0 lf 1017,4 hPa 0,0 l/m 0 min 0 min 0 W/m 4,2 km/h (1 Bft) 95,74 %
27.05.2017 02:34 18,7 C 17,2 C 13,9 C 74 % 0 lf 1017,4 hPa 0,0 l/m 0 min 0 min 0 W/m 4,2 km/h (1 Bft) 95,74 %
27.05.2017 02:36 18,6 C 17,2 C 14,4 C 74 % 0 lf 1017,4 hPa 0,0 l/m 0 min 0 min 0 W/m 4,2 km/h (1 Bft) 95,74 %
27.05.2017 02:38 18,6 C 17,2 C 13,9 C 74 % 0 lf 1017,4 hPa 0,0 l/m 0 min 0 min 0 W/m 4,2 km/h (1 Bft) 93,62 %
27.05.2017 02:40 18,5 C 17,2 C 13,9 C 74 % 0 lf 1017,4 hPa 0,0 l/m 0 min 0 min 0 W/m 4,2 km/h (1 Bft) 97,83 %
27.05.2017 02:42 18,4 C 16,7 C 13,9 C 74 % 0 lf 1017,4 hPa 0,0 l/m 0 min 0 min 0 W/m 6,3 km/h (2 Bft) 95,74 %
27.05.2017 02:44 18,4 C 16,7 C 13,9 C 74 % 0 lf 1017,4 hPa 0,0 l/m 0 min 0 min 0 W/m 6,3 km/h (2 Bft) 95,74 %
27.05.2017 02:46 18,3 C 16,7 C 13,9 C 75 % 0 lf 1017,3 hPa 0,0 l/m 0 min 0 min 0 W/m 6,3 km/h (2 Bft) 93,62 %
27.05.2017 02:48 18,3 C 16,7 C 13,9 C 74 % 0 lf 1017,4 hPa 0,0 l/m 0 min 0 min 0 W/m 6,3 km/h (2 Bft) 89,36 %
27.05.2017 02:50 18,2 C 16,7 C 13,9 C 75 % 0 lf 1017,4 hPa 0,0 l/m 0 min 0 min 0 W/m 8,4 km/h (2 Bft) 95,74 %
27.05.2017 02:52 18,2 C 16,7 C 13,9 C 75 % 0 lf 1017,3 hPa 0,0 l/m 0 min 0 min 0 W/m 10,5 km/h (2 Bft) 93,48 %
27.05.2017 02:54 18,2 C 17,2 C 14,4 C 75 % 0 lf 1017,3 hPa 0,0 l/m 0 min 0 min 0 W/m 8,4 km/h (2 Bft) 93,62 %
27.05.2017 02:56 18,1 C 17,8 C 14,4 C 76 % 0 lf 1017,3 hPa 0,0 l/m 0 min 0 min 0 W/m 10,5 km/h (2 Bft) 93,62 %
27.05.2017 02:58 18,0 C 17,8 C 15,0 C 76 % 0 lf 1017,3 hPa 0,0 l/m 0 min 0 min 0 W/m 10,5 km/h (2 Bft) 93,62 %
27.05.2017 03:00 18,0 C 17,8 C 15,0 C 76 % 0 lf 1017,3 hPa 0,0 l/m 0 min 0 min 0 W/m 10,5 km/h (2 Bft) 91,49 %
27.05.2017 03:02 18,0 C 18,3 C 15,6 C 76 % 0 lf 1017,2 hPa 0,0 l/m 0 min 0 min 0 W/m 10,5 km/h (2 Bft) 95,65 %
27.05.2017 03:04 17,9 C 18,3 C 15,6 C 76 % 0 lf 1017,3 hPa 0,0 l/m 0 min 0 min 0 W/m 14,6 km/h (3 Bft) 93,62 %
27.05.2017 03:06 18,0 C 18,3 C 16,1 C 76 % 0 lf 1017,2 hPa 0,0 l/m 0 min 0 min 0 W/m 16,7 km/h (3 Bft) 95,35 %
27.05.2017 03:08 18,0 C 18,3 C 16,1 C 76 % 0 lf 1017,2 hPa 0,0 l/m 0 min 0 min 0 W/m 14,6 km/h (3 Bft) 97,83 %
27.05.2017 03:10 18,0 C 18,3 C 16,1 C 76 % 0 lf 1017,2 hPa 0,0 l/m 0 min 0 min 0 W/m 12,6 km/h (3 Bft) 95,74 %
27.05.2017 03:12 18,1 C 18,3 C 16,1 C 76 % 0 lf 1017,2 hPa 0,0 l/m 0 min 0 min 0 W/m 14,6 km/h (3 Bft) 95,83 %
27.05.2017 03:14 18,1 C 18,3 C 16,1 C 76 % 0 lf 1017,2 hPa 0,0 l/m 0 min 0 min 0 W/m 14,6 km/h (3 Bft) 93,62 %
27.05.2017 03:16 18,1 C 18,9 C 16,1 C 75 % 0 lf 1017,1 hPa 0,0 l/m 0 min 0 min 0 W/m 10,5 km/h (2 Bft) 93,62 %
27.05.2017 03:18 18,2 C 18,9 C 16,1 C 75 % 0 lf 1017,1 hPa 0,0 l/m 0 min 0 min 0 W/m 10,5 km/h (2 Bft) 95,74 %
27.05.2017 03:20 18,2 C 18,9 C 16,1 C 75 % 0 lf 1017,1 hPa 0,0 l/m 0 min 0 min 0 W/m 10,5 km/h (2 Bft) 97,83 %
27.05.2017 03:22 18,2 C 18,9 C 16,7 C 75 % 0 lf 1017,1 hPa 0,0 l/m 0 min 0 min 0 W/m 20,9 km/h (4 Bft) 93,62 %
27.05.2017 03:24 18,3 C 18,9 C 16,7 C 75 % 0 lf 1017,0 hPa 0,0 l/m 0 min 0 min 0 W/m 14,6 km/h (3 Bft) 95,74 %
27.05.2017 03:26 18,3 C 18,9 C 16,7 C 74 % 0 lf 1017,1 hPa 0,0 l/m 0 min 0 min 0 W/m 16,7 km/h (3 Bft) 93,62 %
27.05.2017 03:28 18,4 C 18,9 C 16,1 C 74 % 0 lf 1017,0 hPa 0,0 l/m 0 min 0 min 0 W/m 16,7 km/h (3 Bft) 91,49 %
27.05.2017 03:30 18,4 C 18,9 C 16,7 C 74 % 0 lf 1017,1 hPa 0,0 l/m 0 min 0 min 0 W/m 20,9 km/h (4 Bft) 93,62 %
27.05.2017 03:32 18,4 C 18,9 C 16,7 C 74 % 0 lf 1017,0 hPa 0,0 l/m 0 min 0 min 0 W/m 18,8 km/h (3 Bft) 95,65 %
27.05.2017 03:34 18,4 C 18,9 C 16,7 C 74 % 0 lf 1017,0 hPa 0,0 l/m 0 min 0 min 0 W/m 16,7 km/h (3 Bft) 97,87 %
27.05.2017 03:36 18,5 C 18,9 C 16,7 C 74 % 0 lf 1017,1 hPa 0,0 l/m 0 min 0 min 0 W/m 18,8 km/h (3 Bft) 96,00 %
27.05.2017 03:38 18,5 C 18,9 C 16,7 C 74 % 0 lf 1017,1 hPa 0,0 l/m 0 min 0 min 0 W/m 20,9 km/h (4 Bft) 97,87 %
27.05.2017 03:40 18,6 C 18,9 C 16,7 C 73 % 0 lf 1017,1 hPa 0,0 l/m 0 min 0 min 0 W/m 16,7 km/h (3 Bft) 97,87 %
27.05.2017 03:42 18,6 C 18,3 C 16,7 C 73 % 0 lf 1017,1 hPa 0,0 l/m 0 min 0 min 0 W/m 12,6 km/h (3 Bft) 97,83 %
27.05.2017 03:44 18,6 C 18,9 C 16,7 C 73 % 0 lf 1017,0 hPa 0,0 l/m 0 min 0 min 0 W/m 18,8 km/h (3 Bft) 97,87 %
27.05.2017 03:46 18,6 C 18,9 C 16,7 C 73 % 0 lf 1017,1 hPa 0,0 l/m 0 min 0 min 0 W/m 20,9 km/h (4 Bft) 97,87 %
27.05.2017 03:48 18,6 C 18,9 C 16,7 C 73 % 0 lf 1017,0 hPa 0,0 l/m 0 min 0 min 0 W/m 18,8 km/h (3 Bft) 97,87 %
27.05.2017 03:50 18,6 C 18,3 C 16,7 C 73 % 0 lf 1017,2 hPa 0,0 l/m 0 min 0 min 0 W/m 16,7 km/h (3 Bft) 97,87 %
27.05.2017 03:52 18,7 C 18,3 C 16,7 C 73 % 0 lf 1017,0 hPa 0,0 l/m 0 min 0 min 0 W/m 14,6 km/h (3 Bft) 95,74 %
27.05.2017 03:54 18,7 C 18,3 C 16,7 C 73 % 0 lf 1017,0 hPa 0,0 l/m 0 min 0 min 0 W/m 20,9 km/h (4 Bft) 93,48 %
27.05.2017 03:56 18,7 C 18,3 C 16,1 C 73 % 0 lf 1017,0 hPa 0,0 l/m 0 min 0 min 0 W/m 14,6 km/h (3 Bft) 95,74 %
27.05.2017 03:58 18,7 C 18,3 C 16,1 C 73 % 0 lf 1017,2 hPa 0,0 l/m 0 min 0 min 0 W/m 10,5 km/h (2 Bft) 95,74 %
27.05.2017 04:00 18,7 C 18,3 C 16,1 C 73 % 0 lf 1017,2 hPa 0,0 l/m 0 min 0 min 0 W/m 12,6 km/h (3 Bft) 95,74 %
27.05.2017 04:05 18,6 C 18,3 C 16,1 C 73 % 0 lf 1017,2 hPa 0,0 l/m 0 min 0 min 0 W/m 14,6 km/h (3 Bft) 88,89 %
27.05.2017 04:06 18,6 C 18,3 C 16,1 C 73 % 0 lf 1017,2 hPa 0,0 l/m 0 min 0 min 0 W/m 12,6 km/h (3 Bft) 91,30 %
27.05.2017 04:08 18,6 C 18,3 C 16,1 C 73 % 0 lf 1017,3 hPa 0,0 l/m 0 min 0 min 0 W/m 12,6 km/h (3 Bft) 97,87 %
27.05.2017 04:10 18,6 C 18,3 C 16,1 C 73 % 0 lf 1017,3 hPa 0,0 l/m 0 min 0 min 0 W/m 14,6 km/h (3 Bft) 89,36 %
27.05.2017 04:12 18,6 C 17,8 C 15,6 C 73 % 0 lf 1017,3 hPa 0,0 l/m 0 min 0 min 0 W/m 14,6 km/h (3 Bft) 95,83 %
27.05.2017 04:14 18,6 C 17,8 C 15,6 C 73 % 0 lf 1017,3 hPa 0,0 l/m 0 min 0 min 0 W/m 12,6 km/h (3 Bft) 100,00 %
27.05.2017 04:16 18,5 C 17,8 C 15,0 C 73 % 0 lf 1017,3 hPa 0,0 l/m 0 min 0 min 0 W/m 10,5 km/h (2 Bft) 100,00 %
27.05.2017 04:18 18,5 C 17,8 C 15,0 C 73 % 0 lf 1017,3 hPa 0,0 l/m 0 min 0 min 0 W/m 12,6 km/h (3 Bft) 100,00 %
27.05.2017 04:20 18,5 C 17,8 C 15,0 C 73 % 0 lf 1017,4 hPa 0,0 l/m 0 min 0 min 0 W/m 6,3 km/h (2 Bft) 97,87 %
27.05.2017 04:22 18,4 C 17,8 C 15,0 C 73 % 0 lf 1017,4 hPa 0,0 l/m 0 min 0 min 0 W/m 8,4 km/h (2 Bft) 100,00 %
27.05.2017 04:24 18,4 C 17,2 C 15,0 C 73 % 0 lf 1017,5 hPa 0,0 l/m 0 min 0 min 0 W/m 6,3 km/h (2 Bft) 97,87 %
27.05.2017 04:26 18,4 C 17,2 C 14,4 C 73 % 0 lf 1017,5 hPa 0,0 l/m 0 min 0 min 0 W/m 6,3 km/h (2 Bft) 100,00 %
27.05.2017 04:28 18,3 C 17,2 C 14,4 C 73 % 0 lf 1017,5 hPa 0,0 l/m 0 min 0 min 0 W/m 6,3 km/h (2 Bft) 97,87 %
27.05.2017 04:30 18,3 C 17,2 C 14,4 C 74 % 0 lf 1017,5 hPa 0,0 l/m 0 min 0 min 0 W/m 8,4 km/h (2 Bft) 100,00 %
27.05.2017 04:32 18,3 C 17,2 C 14,4 C 74 % 0 lf 1017,4 hPa 0,0 l/m 0 min 0 min 0 W/m 8,4 km/h (2 Bft) 97,87 %
27.05.2017 04:34 18,2 C 17,2 C 14,4 C 74 % 0 lf 1017,5 hPa 0,0 l/m 0 min 0 min 0 W/m 6,3 km/h (2 Bft) 100,00 %
27.05.2017 04:36 18,2 C 17,2 C 14,4 C 74 % 0 lf 1017,5 hPa 0,0 l/m 0 min 0 min 0 W/m 8,4 km/h (2 Bft) 97,87 %
27.05.2017 04:38 18,1 C 16,7 C 14,4 C 74 % 0 lf 1017,5 hPa 0,0 l/m 0 min 0 min 0 W/m 10,5 km/h (2 Bft) 100,00 %
27.05.2017 04:40 18,1 C 17,2 C 14,4 C 74 % 0 lf 1017,5 hPa 0,0 l/m 0 min 0 min 0 W/m 8,4 km/h (2 Bft) 97,87 %
27.05.2017 04:42 18,0 C 17,2 C 15,0 C 75 % 0 lf 1017,5 hPa 0,0 l/m 0 min 0 min 0 W/m 10,5 km/h (2 Bft) 100,00 %
27.05.2017 04:44 17,9 C 17,2 C 15,0 C 75 % 0 lf 1017,5 hPa 0,0 l/m 0 min 0 min 0 W/m 8,4 km/h (2 Bft) 97,87 %
27.05.2017 04:46 17,9 C 17,2 C 15,0 C 75 % 0 lf 1017,5 hPa 0,0 l/m 0 min 0 min 0 W/m 8,4 km/h (2 Bft) 100,00 %
27.05.2017 04:48 17,8 C 17,2 C 15,0 C 75 % 0 lf 1017,5 hPa 0,0 l/m 0 min 0 min 0 W/m 8,4 km/h (2 Bft) 93,62 %
27.05.2017 04:50 17,8 C 17,2 C 15,0 C 75 % 0 lf 1017,5 hPa 0,0 l/m 0 min 0 min 0 W/m 10,5 km/h (2 Bft) 100,00 %
27.05.2017 04:52 17,7 C 17,2 C 15,0 C 75 % 0 lf 1017,5 hPa 0,0 l/m 0 min 0 min 0 W/m 10,5 km/h (2 Bft) 97,87 %
27.05.2017 04:54 17,7 C 17,2 C 15,0 C 76 % 0 lf 1017,5 hPa 0,0 l/m 0 min 0 min 0 W/m 12,6 km/h (3 Bft) 97,83 %
27.05.2017 04:56 17,7 C 16,7 C 14,4 C 76 % 0 lf 1017,5 hPa 0,0 l/m 0 min 0 min 0 W/m 10,5 km/h (2 Bft) 97,87 %
27.05.2017 04:58 17,6 C 16,7 C 14,4 C 76 % 0 lf 1017,6 hPa 0,0 l/m 0 min 0 min 0 W/m 8,4 km/h (2 Bft) 97,87 %
27.05.2017 05:00 17,6 C 16,7 C 14,4 C 76 % 0 lf 1017,6 hPa 0,0 l/m 0 min 0 min 0 W/m 6,3 km/h (2 Bft) 93,62 %
27.05.2017 05:02 17,6 C 16,7 C 14,4 C 76 % 0 lf 1017,6 hPa 0,0 l/m 0 min 0 min 0 W/m 6,3 km/h (2 Bft) 97,92 %
27.05.2017 05:04 17,5 C 16,7 C 14,4 C 76 % 0 lf 1017,6 hPa 0,0 l/m 0 min 0 min 0 W/m 6,3 km/h (2 Bft) 93,62 %
27.05.2017 05:06 17,5 C 16,7 C 14,4 C 76 % 0 lf 1017,7 hPa 0,0 l/m 0 min 0 min 0 W/m 8,4 km/h (2 Bft) 97,96 %
27.05.2017 05:08 17,4 C 16,7 C 13,9 C 76 % 0 lf 1017,6 hPa 0,0 l/m 0 min 0 min 0 W/m 8,4 km/h (2 Bft) 95,74 %
27.05.2017 05:10 17,4 C 16,1 C 13,9 C 76 % 0 lf 1017,6 hPa 0,0 l/m 0 min 0 min 0 W/m 8,4 km/h (2 Bft) 97,87 %
27.05.2017 05:12 17,4 C 16,1 C 13,9 C 77 % 0 lf 1017,6 hPa 0,0 l/m 0 min 0 min 0 W/m 6,3 km/h (2 Bft) 91,49 %
27.05.2017 05:14 17,3 C 16,1 C 13,9 C 77 % 0 lf 1017,5 hPa 0,0 l/m 0 min 0 min 0 W/m 6,3 km/h (2 Bft) 95,74 %
27.05.2017 05:16 17,3 C 16,1 C 13,9 C 77 % 0 lf 1017,5 hPa 0,0 l/m 0 min 0 min 0 W/m 8,4 km/h (2 Bft) 95,74 %
27.05.2017 05:18 17,3 C 16,1 C 13,9 C 77 % 0 lf 1017,4 hPa 0,0 l/m 0 min 0 min 0 W/m 6,3 km/h (2 Bft) 95,74 %
27.05.2017 05:20 17,2 C 16,1 C 13,9 C 77 % 0 lf 1017,4 hPa 0,0 l/m 0 min 0 min 0 W/m 6,3 km/h (2 Bft) 95,74 %
27.05.2017 05:22 17,2 C 16,1 C 13,9 C 77 % 0 lf 1017,5 hPa 0,0 l/m 0 min 0 min 8 W/m 6,3 km/h (2 Bft) 93,62 %
27.05.2017 05:24 17,2 C 16,1 C 13,9 C 78 % 0 lf 1017,5 hPa 0,0 l/m 0 min 0 min 10 W/m 4,2 km/h (1 Bft) 93,48 %
27.05.2017 05:26 17,1 C 16,1 C 13,3 C 78 % 0 lf 1017,5 hPa 0,0 l/m 0 min 0 min 10 W/m 4,2 km/h (1 Bft) 97,87 %
27.05.2017 05:28 17,1 C 15,6 C 13,3 C 77 % 0 lf 1017,6 hPa 0,0 l/m 0 min 0 min 10 W/m 6,3 km/h (2 Bft) 93,62 %
27.05.2017 05:30 17,1 C 15,6 C 13,3 C 77 % 0 lf 1017,6 hPa 0,0 l/m 0 min 0 min 10 W/m 4,2 km/h (1 Bft) 93,62 %
27.05.2017 05:32 17,0 C 15,6 C 13,3 C 77 % 0 lf 1017,6 hPa 0,0 l/m 0 min 0 min 14 W/m 4,2 km/h (1 Bft) 91,49 %
27.05.2017 05:34 17,0 C 15,6 C 13,3 C 77 % 0 lf 1017,6 hPa 0,0 l/m 0 min 0 min 14 W/m 4,2 km/h (1 Bft) 97,87 %
27.05.2017 05:36 16,9 C 15,6 C 12,8 C 78 % 0 lf 1017,6 hPa 0,0 l/m 0 min 0 min 16 W/m 4,2 km/h (1 Bft) 95,12 %
27.05.2017 05:38 16,9 C 15,6 C 12,8 C 78 % 0 lf 1017,6 hPa 0,0 l/m 0 min 0 min 18 W/m 0,0 km/h (0 Bft) 97,87 %
27.05.2017 05:40 16,8 C 15,6 C 12,8 C 78 % 0 lf 1017,6 hPa 0,0 l/m 0 min 0 min 19 W/m 4,2 km/h (1 Bft) 89,36 %
27.05.2017 05:42 16,8 C 15,0 C 12,8 C 78 % 0 lf 1017,7 hPa 0,0 l/m 2 min 0 min 22 W/m 4,2 km/h (1 Bft) 95,74 %
27.05.2017 05:44 16,8 C 15,0 C 12,8 C 78 % 0 lf 1017,7 hPa 0,0 l/m 2 min 0 min 22 W/m 4,2 km/h (1 Bft) 93,62 %
27.05.2017 05:46 16,7 C 15,0 C 12,8 C 78 % 0 lf 1017,8 hPa 0,0 l/m 2 min 0 min 24 W/m 4,2 km/h (1 Bft) 93,62 %
27.05.2017 05:48 16,7 C 15,0 C 12,8 C 78 % 0 lf 1017,8 hPa 0,0 l/m 2 min 0 min 26 W/m 6,3 km/h (2 Bft) 95,74 %
27.05.2017 05:50 16,6 C 15,0 C 12,8 C 78 % 0 lf 1017,8 hPa 0,0 l/m 2 min 0 min 29 W/m 6,3 km/h (2 Bft) 93,62 %
27.05.2017 05:52 16,6 C 15,0 C 12,8 C 78 % 0 lf 1017,8 hPa 0,0 l/m 2 min 0 min 32 W/m 6,3 km/h (2 Bft) 95,74 %
27.05.2017 05:54 16,5 C 15,6 C 12,8 C 79 % 0 lf 1017,8 hPa 0,0 l/m 2 min 0 min 34 W/m 8,4 km/h (2 Bft) 93,48 %
27.05.2017 05:56 16,5 C 15,6 C 12,8 C 79 % 0 lf 1017,8 hPa 0,0 l/m 2 min 0 min 37 W/m 6,3 km/h (2 Bft) 91,49 %
27.05.2017 05:58 16,4 C 15,6 C 13,3 C 80 % 0 lf 1017,9 hPa 0,0 l/m 2 min 0 min 39 W/m 8,4 km/h (2 Bft) 91,49 %
27.05.2017 06:00 16,4 C 16,1 C 13,3 C 80 % 0 lf 1017,9 hPa 0,0 l/m 2 min 0 min 42 W/m 6,3 km/h (2 Bft) 97,87 %
27.05.2017 06:02 16,3 C 16,1 C 13,3 C 80 % 0 lf 1017,9 hPa 0,0 l/m 2 min 0 min 45 W/m 8,4 km/h (2 Bft) 89,58 %
27.05.2017 06:04 16,3 C 16,1 C 13,3 C 80 % 0 lf 1017,9 hPa 0,0 l/m 2 min 0 min 49 W/m 8,4 km/h (2 Bft) 95,65 %
27.05.2017 06:06 16,3 C 16,1 C 13,3 C 80 % 0 lf 1017,8 hPa 0,0 l/m 2 min 0 min 52 W/m 6,3 km/h (2 Bft) 94,00 %
27.05.2017 06:08 16,2 C 16,1 C 13,9 C 81 % 0 lf 1017,9 hPa 0,0 l/m 2 min 0 min 55 W/m 6,3 km/h (2 Bft) 91,84 %
27.05.2017 06:10 16,2 C 16,1 C 13,9 C 81 % 0 lf 1017,8 hPa 0,0 l/m 2 min 0 min 59 W/m 6,3 km/h (2 Bft) 95,74 %
27.05.2017 06:12 16,2 C 16,1 C 13,3 C 81 % 0 lf 1017,8 hPa 0,0 l/m 2 min 0 min 64 W/m 6,3 km/h (2 Bft) 95,83 %
27.05.2017 06:14 16,2 C 16,1 C 13,9 C 81 % 0 lf 1017,9 hPa 0,0 l/m 2 min 0 min 66 W/m 6,3 km/h (2 Bft) 95,65 %
27.05.2017 06:16 16,2 C 16,1 C 13,9 C 82 % 0 lf 1017,9 hPa 0,0 l/m 2 min 0 min 69 W/m 4,2 km/h (1 Bft) 93,62 %
27.05.2017 06:18 16,1 C 16,1 C 13,9 C 82 % 0 lf 1017,9 hPa 0,0 l/m 2 min 0 min 74 W/m 6,3 km/h (2 Bft) 95,74 %
27.05.2017 06:20 16,1 C 16,1 C 13,9 C 82 % 0 lf 1018,0 hPa 0,0 l/m 2 min 0 min 78 W/m 4,2 km/h (1 Bft) 95,74 %
27.05.2017 06:22 16,1 C 16,1 C 13,9 C 82 % 0 lf 1018,0 hPa 0,0 l/m 2 min 0 min 82 W/m 4,2 km/h (1 Bft) 95,74 %
27.05.2017 06:24 16,1 C 16,1 C 13,9 C 82 % 0 lf 1017,9 hPa 0,0 l/m 2 min 0 min 86 W/m 6,3 km/h (2 Bft) 95,74 %
27.05.2017 06:26 16,1 C 16,1 C 13,9 C 82 % 0 lf 1018,0 hPa 0,0 l/m 2 min 0 min 91 W/m 4,2 km/h (1 Bft) 95,74 %
27.05.2017 06:28 16,1 C 16,1 C 13,9 C 82 % 0 lf 1017,9 hPa 0,0 l/m 2 min 0 min 94 W/m 6,3 km/h (2 Bft) 93,48 %
27.05.2017 06:30 16,1 C 16,1 C 13,9 C 82 % 0 lf 1017,9 hPa 0,0 l/m 2 min 0 min 99 W/m 6,3 km/h (2 Bft) 93,62 %
27.05.2017 06:32 16,1 C 16,1 C 13,9 C 82 % 0 lf 1018,1 hPa 0,0 l/m 2 min 0 min 105 W/m 8,4 km/h (2 Bft) 93,62 %
27.05.2017 06:34 16,1 C 16,7 C 13,9 C 82 % 0 lf 1017,9 hPa 0,0 l/m 2 min 0 min 108 W/m 8,4 km/h (2 Bft) 97,87 %
27.05.2017 06:36 16,1 C 16,1 C 13,9 C 82 % 0 lf 1017,9 hPa 0,0 l/m 2 min 0 min 113 W/m 8,4 km/h (2 Bft) 97,14 %
27.05.2017 06:38 16,1 C 16,1 C 13,9 C 82 % 0 lf 1017,9 hPa 0,0 l/m 2 min 0 min 119 W/m 8,4 km/h (2 Bft) 97,87 %
27.05.2017 06:40 16,1 C 16,7 C 13,9 C 82 % 0 lf 1017,9 hPa 0,0 l/m 2 min 0 min 124 W/m 8,4 km/h (2 Bft) 95,74 %
27.05.2017 06:42 16,1 C 16,7 C 13,9 C 82 % 0 lf 1018,0 hPa 0,0 l/m 2 min 0 min 127 W/m 8,4 km/h (2 Bft) 95,74 %
27.05.2017 06:44 16,1 C 16,7 C 13,9 C 82 % 0 lf 1018,0 hPa 0,0 l/m 2 min 0 min 135 W/m 12,6 km/h (3 Bft) 97,87 %
27.05.2017 06:46 16,1 C 16,7 C 13,9 C 82 % 0 lf 1018,0 hPa 0,0 l/m 2 min 0 min 140 W/m 6,3 km/h (2 Bft) 97,87 %
27.05.2017 06:48 16,1 C 16,7 C 13,9 C 82 % 0 lf 1018,1 hPa 0,0 l/m 2 min 0 min 147 W/m 8,4 km/h (2 Bft) 89,13 %
27.05.2017 06:50 16,1 C 16,7 C 14,4 C 83 % 0 lf 1018,0 hPa 0,0 l/m 2 min 0 min 153 W/m 10,5 km/h (2 Bft) 93,62 %
27.05.2017 06:52 16,1 C 16,7 C 14,4 C 83 % 0 lf 1018,0 hPa 0,0 l/m 2 min 0 min 158 W/m 6,3 km/h (2 Bft) 95,74 %
27.05.2017 06:54 16,2 C 17,2 C 14,4 C 83 % 0 lf 1018,0 hPa 0,0 l/m 2 min 0 min 165 W/m 8,4 km/h (2 Bft) 97,87 %
27.05.2017 06:56 16,2 C 17,2 C 14,4 C 83 % 0 lf 1018,0 hPa 0,0 l/m 2 min 0 min 171 W/m 8,4 km/h (2 Bft) 97,87 %
27.05.2017 06:58 16,2 C 17,2 C 14,4 C 83 % 0 lf 1018,0 hPa 0,0 l/m 2 min 0 min 178 W/m 10,5 km/h (2 Bft) 95,74 %
27.05.2017 07:00 16,2 C 17,2 C 15,0 C 83 % 0 lf 1018,0 hPa 0,0 l/m 2 min 0 min 185 W/m 8,4 km/h (2 Bft) 95,65 %
27.05.2017 07:02 16,3 C 17,2 C 15,0 C 83 % 0 lf 1018,0 hPa 0,0 l/m 2 min 0 min 193 W/m 12,6 km/h (3 Bft) 95,74 %
27.05.2017 07:04 16,3 C 17,2 C 15,0 C 83 % 0 lf 1018,0 hPa 0,0 l/m 2 min 0 min 198 W/m 12,6 km/h (3 Bft) 93,62 %
27.05.2017 07:06 16,4 C 17,8 C 15,0 C 83 % 0 lf 1018,0 hPa 0,0 l/m 2 min 0 min 207 W/m 10,5 km/h (2 Bft) 92,59 %
27.05.2017 07:08 16,4 C 17,8 C 15,6 C 83 % 0 lf 1018,0 hPa 0,0 l/m 2 min 0 min 159 W/m 16,7 km/h (3 Bft) 100,00 %
27.05.2017 07:10 16,4 C 17,8 C 15,6 C 83 % 0 lf 1017,9 hPa 0,0 l/m 2 min 0 min 140 W/m 12,6 km/h (3 Bft) 97,87 %
27.05.2017 07:12 16,6 C 17,8 C 15,6 C 83 % 0 lf 1017,9 hPa 0,0 l/m 2 min 0 min 143 W/m 16,7 km/h (3 Bft) 95,83 %
27.05.2017 07:14 16,6 C 17,8 C 16,1 C 82 % 0 lf 1017,9 hPa 0,0 l/m 2 min 0 min 148 W/m 14,6 km/h (3 Bft) 97,83 %
27.05.2017 07:16 16,7 C 18,3 C 16,1 C 82 % 0 lf 1017,9 hPa 0,0 l/m 2 min 0 min 153 W/m 16,7 km/h (3 Bft) 97,87 %
27.05.2017 07:18 16,8 C 18,3 C 16,1 C 82 % 0 lf 1017,9 hPa 0,0 l/m 2 min 0 min 159 W/m 16,7 km/h (3 Bft) 97,87 %
27.05.2017 07:20 16,9 C 18,3 C 16,1 C 81 % 0 lf 1017,9 hPa 0,0 l/m 2 min 0 min 197 W/m 18,8 km/h (3 Bft) 95,74 %
27.05.2017 07:22 17,0 C 18,3 C 16,1 C 81 % 0 lf 1017,9 hPa 0,0 l/m 2 min 0 min 203 W/m 20,9 km/h (4 Bft) 95,74 %
27.05.2017 07:24 17,1 C 18,3 C 16,1 C 81 % 0 lf 1017,8 hPa 0,0 l/m 2 min 0 min 210 W/m 16,7 km/h (3 Bft) 95,74 %
27.05.2017 07:26 17,2 C 18,3 C 16,7 C 80 % 0 lf 1017,8 hPa 0,0 l/m 2 min 0 min 216 W/m 18,8 km/h (3 Bft) 93,48 %
27.05.2017 07:28 17,3 C 18,3 C 16,1 C 80 % 0 lf 1017,8 hPa 0,0 l/m 2 min 0 min 223 W/m 16,7 km/h (3 Bft) 95,74 %
27.05.2017 07:30 17,4 C 18,3 C 16,7 C 80 % 0 lf 1017,7 hPa 0,0 l/m 2 min 0 min 232 W/m 16,7 km/h (3 Bft) 97,87 %
27.05.2017 07:32 17,4 C 18,9 C 16,7 C 80 % 0 lf 1017,8 hPa 0,0 l/m 2 min 0 min 238 W/m 16,7 km/h (3 Bft) 97,92 %
27.05.2017 07:34 17,6 C 18,9 C 16,7 C 80 % 0 lf 1017,7 hPa 0,0 l/m 2 min 0 min 244 W/m 20,9 km/h (4 Bft) 100,00 %
27.05.2017 07:36 17,6 C 18,9 C 16,7 C 79 % 0 lf 1017,8 hPa 0,0 l/m 2 min 0 min 254 W/m 25,1 km/h (4 Bft) 100,00 %
27.05.2017 07:38 17,7 C 18,9 C 16,7 C 79 % 0 lf 1017,7 hPa 0,0 l/m 2 min 0 min 259 W/m 18,8 km/h (3 Bft) 97,87 %
27.05.2017 07:40 17,8 C 18,9 C 16,7 C 79 % 0 lf 1017,7 hPa 0,0 l/m 2 min 0 min 266 W/m 18,8 km/h (3 Bft) 95,74 %
27.05.2017 07:42 17,9 C 18,9 C 16,7 C 78 % 0 lf 1017,8 hPa 0,0 l/m 2 min 0 min 274 W/m 14,6 km/h (3 Bft) 100,00 %
27.05.2017 07:44 17,9 C 18,9 C 16,7 C 78 % 0 lf 1017,9 hPa 0,0 l/m 2 min 0 min 281 W/m 25,1 km/h (4 Bft) 100,00 %
27.05.2017 07:46 18,1 C 18,9 C 17,2 C 78 % 0 lf 1017,9 hPa 0,0 l/m 2 min 0 min 289 W/m 25,1 km/h (4 Bft) 100,00 %
27.05.2017 07:48 18,1 C 18,9 C 16,7 C 78 % 0 lf 1017,9 hPa 0,0 l/m 2 min 0 min 296 W/m 25,1 km/h (4 Bft) 95,74 %
27.05.2017 07:50 18,2 C 18,9 C 17,2 C 77 % 0 lf 1017,9 hPa 0,0 l/m 2 min 0 min 303 W/m 27,2 km/h (4 Bft) 100,00 %
27.05.2017 07:52 18,3 C 18,9 C 17,2 C 77 % 0 lf 1017,9 hPa 0,0 l/m 2 min 0 min 311 W/m 25,1 km/h (4 Bft) 97,87 %
27.05.2017 07:54 18,3 C 19,4 C 17,2 C 77 % 0 lf 1017,9 hPa 0,0 l/m 2 min 0 min 319 W/m 18,8 km/h (3 Bft) 100,00 %
27.05.2017 07:56 18,4 C 19,4 C 17,2 C 76 % 0 lf 1017,9 hPa 0,0 l/m 2 min 0 min 325 W/m 25,1 km/h (4 Bft) 100,00 %
27.05.2017 07:58 18,5 C 19,4 C 17,2 C 76 % 0 lf 1017,9 hPa 0,0 l/m 2 min 0 min 332 W/m 25,1 km/h (4 Bft) 97,87 %
27.05.2017 08:00 18,6 C 19,4 C 17,2 C 76 % 0 lf 1017,9 hPa 0,0 l/m 2 min 0 min 342 W/m 31,4 km/h (5 Bft) 100,00 %
27.05.2017 08:02 18,6 C 19,4 C 17,2 C 76 % 0 lf 1017,9 hPa 0,0 l/m 2 min 0 min 349 W/m 29,3 km/h (5 Bft) 100,00 %
27.05.2017 08:04 18,7 C 19,4 C 17,2 C 76 % 0 lf 1017,8 hPa 0,0 l/m 2 min 0 min 355 W/m 20,9 km/h (4 Bft) 100,00 %
27.05.2017 08:06 18,7 C 19,4 C 17,2 C 76 % 0 lf 1017,9 hPa 0,0 l/m 2 min 0 min 362 W/m 23,0 km/h (4 Bft) 97,87 %
27.05.2017 08:08 18,8 C 19,4 C 17,8 C 76 % 0 lf 1017,8 hPa 0,0 l/m 2 min 0 min 370 W/m 23,0 km/h (4 Bft) 97,87 %
27.05.2017 08:10 18,8 C 20,0 C 17,8 C 76 % 0 lf 1017,8 hPa 0,0 l/m 2 min 0 min 376 W/m 23,0 km/h (4 Bft) 97,83 %
27.05.2017 08:12 18,9 C 20,0 C 17,8 C 75 % 0 lf 1017,8 hPa 0,0 l/m 2 min 0 min 383 W/m 27,2 km/h (4 Bft) 97,87 %
27.05.2017 08:14 18,9 C 20,0 C 17,8 C 76 % 0 lf 1017,8 hPa 0,0 l/m 2 min 0 min 391 W/m 25,1 km/h (4 Bft) 100,00 %
27.05.2017 08:16 19,0 C 20,0 C 17,8 C 75 % 0 lf 1017,8 hPa 0,0 l/m 2 min 0 min 400 W/m 23,0 km/h (4 Bft) 100,00 %
27.05.2017 08:18 19,1 C 20,0 C 17,8 C 75 % 0 lf 1017,7 hPa 0,0 l/m 2 min 0 min 408 W/m 14,6 km/h (3 Bft) 95,74 %
27.05.2017 08:20 19,2 C 20,6 C 17,8 C 75 % 0 lf 1017,7 hPa 0,0 l/m 2 min 0 min 415 W/m 16,7 km/h (3 Bft) 97,87 %
27.05.2017 08:22 19,2 C 20,6 C 18,3 C 75 % 0 lf 1017,7 hPa 0,0 l/m 2 min 0 min 423 W/m 23,0 km/h (4 Bft) 95,65 %
27.05.2017 08:24 19,3 C 20,6 C 18,3 C 75 % 0 lf 1017,8 hPa 0,0 l/m 2 min 0 min 431 W/m 25,1 km/h (4 Bft) 97,87 %
27.05.2017 08:26 19,4 C 20,6 C 18,3 C 74 % 0 lf 1017,7 hPa 0,0 l/m 2 min 0 min 439 W/m 20,9 km/h (4 Bft) 97,87 %
27.05.2017 08:28 19,4 C 23,3 C 18,3 C 74 % 0 lf 1017,7 hPa 0,0 l/m 2 min 0 min 445 W/m 23,0 km/h (4 Bft) 97,87 %
27.05.2017 08:30 19,6 C 25,6 C 18,3 C 74 % 0 lf 1017,7 hPa 0,0 l/m 2 min 0 min 453 W/m 23,0 km/h (4 Bft) 95,74 %
27.05.2017 08:32 19,7 C 26,1 C 18,3 C 73 % 0 lf 1017,7 hPa 0,0 l/m 2 min 0 min 461 W/m 18,8 km/h (3 Bft) 94,34 %
27.05.2017 08:34 19,8 C 26,7 C 18,9 C 73 % 0 lf 1017,7 hPa 0,0 l/m 2 min 0 min 469 W/m 29,3 km/h (5 Bft) 93,62 %
27.05.2017 08:36 20,0 C 27,2 C 18,9 C 73 % 0 lf 1017,7 hPa 0,0 l/m 2 min 0 min 476 W/m 29,3 km/h (5 Bft) 97,96 %
27.05.2017 08:38 20,2 C 27,2 C 18,9 C 72 % 0 lf 1017,7 hPa 0,0 l/m 2 min 0 min 485 W/m 23,0 km/h (4 Bft) 97,87 %
27.05.2017 08:40 20,3 C 27,2 C 18,9 C 72 % 0 lf 1017,7 hPa 0,0 l/m 2 min 0 min 490 W/m 25,1 km/h (4 Bft) 97,87 %
27.05.2017 08:42 20,5 C 28,3 C 18,9 C 71 % 0 lf 1017,7 hPa 0,0 l/m 2 min 0 min 499 W/m 25,1 km/h (4 Bft) 97,92 %
27.05.2017 08:44 20,7 C 28,9 C 18,9 C 71 % 0 lf 1017,7 hPa 0,0 l/m 2 min 0 min 506 W/m 20,9 km/h (4 Bft) 97,87 %
27.05.2017 08:46 20,8 C 28,3 C 19,4 C 70 % 0 lf 1017,7 hPa 0,0 l/m 2 min 0 min 514 W/m 29,3 km/h (5 Bft) 97,83 %
27.05.2017 08:48 21,0 C 28,3 C 19,4 C 70 % 0 lf 1017,7 hPa 0,0 l/m 2 min 0 min 521 W/m 23,0 km/h (4 Bft) 97,96 %
27.05.2017 08:50 21,1 C 28,3 C 19,4 C 69 % 0 lf 1017,7 hPa 0,0 l/m 2 min 0 min 531 W/m 25,1 km/h (4 Bft) 93,62 %
27.05.2017 08:52 21,3 C 29,4 C 19,4 C 69 % 0 lf 1017,7 hPa 0,0 l/m 2 min 0 min 538 W/m 16,7 km/h (3 Bft) 97,14 %
27.05.2017 08:54 21,4 C 30,6 C 19,4 C 69 % 0 lf 1017,8 hPa 0,0 l/m 2 min 0 min 546 W/m 18,8 km/h (3 Bft) 93,10 %
27.05.2017 08:56 21,6 C 30,0 C 20,0 C 68 % 0 lf 1017,8 hPa 0,0 l/m 2 min 0 min 552 W/m 20,9 km/h (4 Bft) 95,74 %
27.05.2017 08:58 21,8 C 30,0 C 20,0 C 68 % 0 lf 1017,7 hPa 0,0 l/m 2 min 0 min 561 W/m 18,8 km/h (3 Bft) 95,65 %
27.05.2017 09:00 21,9 C 28,9 C 20,0 C 67 % 0 lf 1017,7 hPa 0,0 l/m 2 min 0 min 569 W/m 16,7 km/h (3 Bft) 93,62 %
27.05.2017 09:02 22,1 C 28,3 C 20,0 C 66 % 0 lf 1017,7 hPa 0,0 l/m 2 min 0 min 577 W/m 27,2 km/h (4 Bft) 93,62 %
27.05.2017 09:04 22,2 C 28,9 C 20,6 C 66 % 0 lf 1017,6 hPa 0,0 l/m 2 min 0 min 585 W/m 23,0 km/h (4 Bft) 87,23 %
27.05.2017 09:06 22,3 C 28,3 C 20,6 C 66 % 0 lf 1017,6 hPa 0,0 l/m 2 min 0 min 593 W/m 25,1 km/h (4 Bft) 91,67 %
27.05.2017 09:08 22,5 C 28,9 C 20,6 C 65 % 0 lf 1017,6 hPa 0,0 l/m 2 min 0 min 600 W/m 23,0 km/h (4 Bft) 84,78 %
27.05.2017 09:10 22,6 C 28,9 C 20,6 C 65 % 0 lf 1017,5 hPa 0,0 l/m 2 min 0 min 608 W/m 23,0 km/h (4 Bft) 91,49 %
27.05.2017 09:12 22,7 C 30,0 C 20,6 C 65 % 0 lf 1017,4 hPa 0,0 l/m 2 min 0 min 615 W/m 16,7 km/h (3 Bft) 91,49 %
27.05.2017 09:14 22,8 C 30,0 C 21,1 C 65 % 0 lf 1017,4 hPa 0,0 l/m 2 min 0 min 624 W/m 23,0 km/h (4 Bft) 91,49 %
27.05.2017 09:16 22,9 C 30,6 C 21,1 C 65 % 0 lf 1017,4 hPa 0,0 l/m 2 min 0 min 632 W/m 27,2 km/h (4 Bft) 93,62 %
27.05.2017 09:18 23,1 C 30,0 C 21,1 C 64 % 0 lf 1017,4 hPa 0,0 l/m 2 min 0 min 639 W/m 18,8 km/h (3 Bft) 93,62 %
27.05.2017 09:20 23,2 C 30,6 C 21,1 C 64 % 0 lf 1017,4 hPa 0,0 l/m 2 min 0 min 647 W/m 20,9 km/h (4 Bft) 89,13 %
27.05.2017 09:22 23,3 C 30,6 C 21,1 C 64 % 0 lf 1017,4 hPa 0,0 l/m 2 min 0 min 654 W/m 31,4 km/h (5 Bft) 93,62 %
27.05.2017 09:24 23,4 C 29,4 C 21,7 C 63 % 0 lf 1017,5 hPa 0,0 l/m 2 min 0 min 662 W/m 20,9 km/h (4 Bft) 91,49 %
27.05.2017 09:26 23,5 C 28,9 C 21,7 C 62 % 0 lf 1017,4 hPa 0,0 l/m 2 min 0 min 669 W/m 20,9 km/h (4 Bft) 89,36 %
27.05.2017 09:28 23,6 C 30,0 C 21,7 C 63 % 0 lf 1017,5 hPa 0,0 l/m 2 min 0 min 677 W/m 29,3 km/h (5 Bft) 97,87 %
27.05.2017 09:30 23,6 C 30,6 C 21,7 C 63 % 0 lf 1017,5 hPa 0,0 l/m 2 min 0 min 684 W/m 25,1 km/h (4 Bft) 93,62 %
27.05.2017 09:32 23,7 C 30,6 C 21,7 C 63 % 0 lf 1017,5 hPa 0,0 l/m 2 min 0 min 693 W/m 25,1 km/h (4 Bft) 91,30 %
27.05.2017 09:34 23,8 C 31,1 C 21,7 C 62 % 0 lf 1017,5 hPa 0,0 l/m 2 min 0 min 698 W/m 25,1 km/h (4 Bft) 91,49 %
27.05.2017 09:36 23,8 C 31,7 C 21,7 C 62 % 0 lf 1017,4 hPa 0,0 l/m 2 min 0 min 708 W/m 20,9 km/h (4 Bft) 93,62 %
27.05.2017 09:38 23,9 C 32,8 C 22,2 C 63 % 0 lf 1017,4 hPa 0,0 l/m 2 min 0 min 716 W/m 23,0 km/h (4 Bft) 89,36 %
27.05.2017 09:40 24,1 C 32,2 C 22,2 C 62 % 0 lf 1017,5 hPa 0,0 l/m 2 min 0 min 723 W/m 25,1 km/h (4 Bft) 91,49 %
27.05.2017 09:43 24,3 C 32,2 C 22,8 C 61 % 0 lf 1017,5 hPa 0,0 l/m 3 min 0 min 732 W/m 20,9 km/h (4 Bft) 94,29 %
27.05.2017 09:44 24,3 C 31,1 C 22,8 C 61 % 0 lf 1017,5 hPa 0,0 l/m 1 min 0 min 739 W/m 14,6 km/h (3 Bft) 95,65 %
27.05.2017 09:46 24,4 C 30,6 C 22,8 C 61 % 0 lf 1017,5 hPa 0,0 l/m 2 min 0 min 744 W/m 23,0 km/h (4 Bft) 95,74 %
27.05.2017 09:48 24,5 C 30,6 C 22,8 C 60 % 0 lf 1017,5 hPa 0,0 l/m 2 min 0 min 751 W/m 25,1 km/h (4 Bft) 95,74 %
27.05.2017 09:50 24,6 C 30,0 C 22,8 C 59 % 0 lf 1017,5 hPa 0,0 l/m 2 min 0 min 758 W/m 23,0 km/h (4 Bft) 95,74 %
27.05.2017 09:52 24,6 C 30,6 C 22,8 C 59 % 0 lf 1017,5 hPa 0,0 l/m 2 min 0 min 767 W/m 23,0 km/h (4 Bft) 95,74 %
27.05.2017 09:54 24,7 C 31,7 C 23,3 C 60 % 0 lf 1017,5 hPa 0,0 l/m 2 min 0 min 774 W/m 25,1 km/h (4 Bft) 97,87 %
27.05.2017 09:56 24,8 C 31,7 C 25,6 C 60 % 0 lf 1017,4 hPa 0,0 l/m 2 min 0 min 781 W/m 16,7 km/h (3 Bft) 97,83 %
27.05.2017 09:58 24,8 C 31,1 C 26,7 C 59 % 0 lf 1017,4 hPa 0,0 l/m 2 min 0 min 789 W/m 16,7 km/h (3 Bft) 100,00 %
27.05.2017 10:00 24,9 C 31,1 C 27,8 C 59 % 0 lf 1017,3 hPa 0,0 l/m 2 min 0 min 795 W/m 20,9 km/h (4 Bft) 100,00 %
27.05.2017 10:02 25,0 C 32,2 C 28,3 C 59 % 0 lf 1017,4 hPa 0,0 l/m 2 min 0 min 804 W/m 37,7 km/h (5 Bft) 94,44 %
27.05.2017 10:04 25,1 C 32,2 C 28,9 C 59 % 0 lf 1017,3 hPa 0,0 l/m 2 min 0 min 810 W/m 25,1 km/h (4 Bft) 100,00 %
27.05.2017 10:06 25,1 C 32,8 C 30,0 C 59 % 0 lf 1017,3 hPa 0,0 l/m 2 min 0 min 819 W/m 16,7 km/h (3 Bft) 96,08 %
27.05.2017 10:08 25,2 C 33,3 C 30,6 C 59 % 0 lf 1017,3 hPa 0,0 l/m 2 min 0 min 635 W/m 20,9 km/h (4 Bft) 100,00 %
27.05.2017 10:10 25,3 C 33,3 C 31,1 C 59 % 0 lf 1017,3 hPa 0,0 l/m 2 min 0 min 555 W/m 25,1 km/h (4 Bft) 100,00 %
27.05.2017 10:12 25,4 C 31,7 C 30,6 C 58 % 0 lf 1017,3 hPa 0,0 l/m 2 min 0 min 559 W/m 25,1 km/h (4 Bft) 95,83 %
27.05.2017 10:14 25,4 C 32,2 C 30,6 C 58 % 0 lf 1017,3 hPa 0,0 l/m 2 min 0 min 563 W/m 20,9 km/h (4 Bft) 100,00 %
27.05.2017 10:16 25,5 C 31,7 C 31,7 C 57 % 0 lf 1017,2 hPa 0,0 l/m 2 min 0 min 568 W/m 18,8 km/h (3 Bft) 97,83 %
27.05.2017 10:18 25,6 C 31,1 C 31,1 C 57 % 0 lf 1017,3 hPa 0,0 l/m 2 min 0 min 574 W/m 25,1 km/h (4 Bft) 100,00 %
27.05.2017 10:20 25,6 C 30,6 C 31,7 C 57 % 0 lf 1017,3 hPa 0,0 l/m 2 min 0 min 578 W/m 25,1 km/h (4 Bft) 100,00 %
27.05.2017 10:22 25,7 C 30,0 C 31,7 C 56 % 0 lf 1017,3 hPa 0,0 l/m 2 min 0 min 582 W/m 23,0 km/h (4 Bft) 100,00 %
27.05.2017 10:24 25,7 C 31,1 C 32,2 C 57 % 0 lf 1017,3 hPa 0,0 l/m 2 min 0 min 585 W/m 20,9 km/h (4 Bft) 95,74 %
27.05.2017 10:26 25,7 C 31,1 C 32,2 C 57 % 0 lf 1017,3 hPa 0,0 l/m 2 min 0 min 591 W/m 25,1 km/h (4 Bft) 97,83 %
27.05.2017 10:28 25,8 C 31,7 C 31,7 C 57 % 0 lf 1017,2 hPa 0,0 l/m 2 min 0 min 595 W/m 25,1 km/h (4 Bft) 93,62 %
27.05.2017 10:30 25,8 C 30,6 C 31,7 C 56 % 0 lf 1017,2 hPa 0,0 l/m 2 min 0 min 600 W/m 31,4 km/h (5 Bft) 95,74 %
27.05.2017 10:32 25,8 C 30,0 C 31,7 C 55 % 0 lf 1017,2 hPa 0,0 l/m 2 min 0 min 604 W/m 33,5 km/h (5 Bft) 100,00 %
27.05.2017 10:34 25,8 C 30,6 C 31,7 C 56 % 0 lf 1017,2 hPa 0,0 l/m 2 min 0 min 608 W/m 31,4 km/h (5 Bft) 100,00 %
27.05.2017 10:36 25,8 C 30,6 C 32,2 C 55 % 0 lf 1017,2 hPa 0,0 l/m 2 min 0 min 613 W/m 27,2 km/h (4 Bft) 97,14 %
27.05.2017 10:38 25,9 C 32,2 C 32,2 C 56 % 0 lf 1017,3 hPa 0,0 l/m 2 min 0 min 617 W/m 23,0 km/h (4 Bft) 100,00 %
27.05.2017 10:40 25,9 C 31,1 C 32,2 C 55 % 0 lf 1017,2 hPa 0,0 l/m 2 min 0 min 622 W/m 23,0 km/h (4 Bft) 100,00 %
27.05.2017 10:42 25,9 C 31,7 C 32,2 C 55 % 0 lf 1017,3 hPa 0,0 l/m 2 min 0 min 626 W/m 18,8 km/h (3 Bft) 100,00 %
27.05.2017 10:44 26,0 C 31,1 C 32,2 C 55 % 0 lf 1017,2 hPa 0,0 l/m 2 min 0 min 630 W/m 23,0 km/h (4 Bft) 100,00 %
27.05.2017 10:46 26,1 C 31,1 C 32,2 C 55 % 0 lf 1017,1 hPa 0,0 l/m 2 min 0 min 635 W/m 33,5 km/h (5 Bft) 95,74 %
27.05.2017 10:48 26,1 C 33,3 C 32,2 C 55 % 0 lf 1017,1 hPa 0,0 l/m 2 min 0 min 639 W/m 18,8 km/h (3 Bft) 97,87 %
27.05.2017 10:50 26,2 C 35,0 C 33,3 C 57 % 0 lf 1017,0 hPa 0,0 l/m 2 min 0 min 644 W/m 27,2 km/h (4 Bft) 100,00 %
27.05.2017 10:52 26,3 C 35,6 C 33,9 C 57 % 0 lf 1017,0 hPa 0,0 l/m 2 min 0 min 647 W/m 16,7 km/h (3 Bft) 97,87 %
27.05.2017 10:54 26,5 C 34,4 C 33,3 C 56 % 0 lf 1017,0 hPa 0,0 l/m 2 min 0 min 652 W/m 23,0 km/h (4 Bft) 97,83 %
27.05.2017 10:56 26,6 C 33,3 C 33,3 C 54 % 0 lf 1016,9 hPa 0,0 l/m 2 min 0 min 657 W/m 16,7 km/h (3 Bft) 100,00 %
27.05.2017 10:58 26,7 C 32,8 C 32,8 C 54 % 0 lf 1016,9 hPa 0,0 l/m 2 min 0 min 661 W/m 31,4 km/h (5 Bft) 95,74 %
27.05.2017 11:00 26,7 C 32,2 C 32,2 C 53 % 0 lf 1017,0 hPa 0,0 l/m 2 min 0 min 666 W/m 27,2 km/h (4 Bft) 100,00 %
27.05.2017 11:02 26,8 C 32,2 C 32,2 C 53 % 0 lf 1016,9 hPa 0,0 l/m 2 min 0 min 668 W/m 23,0 km/h (4 Bft) 100,00 %
27.05.2017 11:04 26,8 C 32,8 C 32,8 C 53 % 0 lf 1016,9 hPa 0,0 l/m 2 min 0 min 670 W/m 29,3 km/h (5 Bft) 97,87 %
27.05.2017 11:06 26,9 C 34,4 C 33,3 C 53 % 0 lf 1016,8 hPa 0,0 l/m 2 min 0 min 676 W/m 23,0 km/h (4 Bft) 98,00 %
27.05.2017 11:08 27,0 C 34,4 C 33,9 C 53 % 0 lf 1016,8 hPa 0,0 l/m 2 min 0 min 680 W/m 25,1 km/h (4 Bft) 97,83 %
27.05.2017 11:10 27,1 C 33,9 C 33,3 C 53 % 0 lf 1016,8 hPa 0,0 l/m 2 min 0 min 683 W/m 25,1 km/h (4 Bft) 97,87 %
27.05.2017 11:12 27,2 C 34,4 C 32,8 C 53 % 0 lf 1016,8 hPa 0,0 l/m 2 min 0 min 686 W/m 31,4 km/h (5 Bft) 95,74 %
27.05.2017 11:14 27,3 C 35,0 C 33,3 C 53 % 0 lf 1016,8 hPa 0,0 l/m 2 min 0 min 689 W/m 27,2 km/h (4 Bft) 97,87 %
27.05.2017 11:16 27,4 C 34,4 C 33,3 C 52 % 0 lf 1016,8 hPa 0,0 l/m 2 min 0 min 693 W/m 25,1 km/h (4 Bft) 95,74 %
27.05.2017 11:18 27,5 C 33,9 C 32,8 C 52 % 0 lf 1016,8 hPa 0,0 l/m 2 min 0 min 698 W/m 31,4 km/h (5 Bft) 95,74 %
27.05.2017 11:20 27,5 C 32,2 C 31,1 C 51 % 0 lf 1016,7 hPa 0,0 l/m 2 min 0 min 700 W/m 29,3 km/h (5 Bft) 95,65 %
27.05.2017 11:22 27,5 C 32,8 C 30,0 C 51 % 0 lf 1016,7 hPa 0,0 l/m 2 min 0 min 706 W/m 29,3 km/h (5 Bft) 93,62 %
27.05.2017 11:24 27,5 C 32,2 C 29,4 C 51 % 0 lf 1016,7 hPa 0,0 l/m 2 min 0 min 710 W/m 27,2 km/h (4 Bft) 95,74 %
27.05.2017 11:26 27,5 C 32,2 C 29,4 C 51 % 0 lf 1016,5 hPa 0,0 l/m 2 min 0 min 714 W/m 23,0 km/h (4 Bft) 95,74 %
27.05.2017 11:28 27,5 C 32,2 C 30,0 C 52 % 0 lf 1016,6 hPa 0,0 l/m 2 min 0 min 717 W/m 31,4 km/h (5 Bft) 97,87 %
27.05.2017 11:30 27,6 C 32,8 C 31,1 C 51 % 0 lf 1016,6 hPa 0,0 l/m 2 min 0 min 718 W/m 23,0 km/h (4 Bft) 97,83 %
27.05.2017 11:32 27,6 C 33,9 C 32,2 C 51 % 0 lf 1016,5 hPa 0,0 l/m 2 min 0 min 723 W/m 39,7 km/h (6 Bft) 93,75 %
27.05.2017 11:34 27,6 C 34,4 C 33,3 C 51 % 0 lf 1016,5 hPa 0,0 l/m 2 min 0 min 727 W/m 29,3 km/h (5 Bft) 95,74 %
27.05.2017 11:36 27,7 C 33,3 C 33,3 C 50 % 0 lf 1016,4 hPa 0,0 l/m 2 min 0 min 730 W/m 33,5 km/h (5 Bft) 83,33 %
27.05.2017 11:38 27,7 C 33,3 C 33,3 C 50 % 0 lf 1016,4 hPa 0,0 l/m 2 min 0 min 733 W/m 27,2 km/h (4 Bft) 95,74 %
27.05.2017 11:40 27,7 C 33,3 C 33,9 C 51 % 0 lf 1016,4 hPa 0,0 l/m 2 min 0 min 738 W/m 25,1 km/h (4 Bft) 91,30 %
27.05.2017 11:42 27,8 C 33,9 C 34,4 C 51 % 0 lf 1016,4 hPa 0,0 l/m 2 min 0 min 740 W/m 25,1 km/h (4 Bft) 93,62 %
27.05.2017 11:44 27,8 C 33,9 C 34,4 C 51 % 0 lf 1016,4 hPa 0,0 l/m 2 min 0 min 744 W/m 29,3 km/h (5 Bft) 93,62 %
27.05.2017 11:46 27,9 C 33,3 C 35,0 C 50 % 0 lf 1016,4 hPa 0,0 l/m 2 min 0 min 746 W/m 23,0 km/h (4 Bft) 93,62 %
27.05.2017 11:48 27,9 C 34,4 C 35,0 C 50 % 0 lf 1016,4 hPa 0,0 l/m 2 min 0 min 749 W/m 23,0 km/h (4 Bft) 95,74 %
27.05.2017 11:50 28,1 C 34,4 C 35,0 C 51 % 0 lf 1016,4 hPa 0,0 l/m 2 min 0 min 751 W/m 20,9 km/h (4 Bft) 93,62 %
27.05.2017 11:52 28,1 C 33,9 C 35,0 C 50 % 0 lf 1016,4 hPa 0,0 l/m 2 min 0 min 755 W/m 27,2 km/h (4 Bft) 95,65 %
27.05.2017 11:54 28,2 C 32,8 C 34,4 C 49 % 0 lf 1016,3 hPa 0,0 l/m 2 min 0 min 759 W/m 37,7 km/h (5 Bft) 93,62 %
27.05.2017 11:56 28,2 C 33,3 C 34,4 C 49 % 0 lf 1016,3 hPa 0,0 l/m 2 min 0 min 735 W/m 18,8 km/h (3 Bft) 95,74 %
27.05.2017 11:58 28,2 C 33,9 C 34,4 C 49 % 0 lf 1016,4 hPa 0,0 l/m 2 min 0 min 674 W/m 37,7 km/h (5 Bft) 91,49 %
27.05.2017 12:00 28,3 C 33,3 C 35,0 C 49 % 0 lf 1016,4 hPa 0,0 l/m 2 min 0 min 611 W/m 25,1 km/h (4 Bft) 95,74 %
27.05.2017 12:02 28,3 C 33,3 C 34,4 C 49 % 0 lf 1016,3 hPa 0,0 l/m 2 min 0 min 494 W/m 27,2 km/h (4 Bft) 95,74 %
27.05.2017 12:04 28,3 C 33,9 C 34,4 C 49 % 0 lf 1016,3 hPa 0,0 l/m 2 min 0 min 414 W/m 33,5 km/h (5 Bft) 95,65 %
27.05.2017 12:06 28,3 C 33,9 C 34,4 C 48 % 0 lf 1016,3 hPa 0,0 l/m 2 min 0 min 780 W/m 25,1 km/h (4 Bft) 95,74 %
27.05.2017 12:08 28,4 C 35,0 C 35,0 C 49 % 0 lf 1016,2 hPa 0,0 l/m 2 min 0 min 781 W/m 27,2 km/h (4 Bft) 95,74 %
27.05.2017 12:10 28,4 C 33,9 C 34,4 C 48 % 0 lf 1016,2 hPa 0,0 l/m 2 min 0 min 782 W/m 35,6 km/h (5 Bft) 93,62 %
27.05.2017 12:12 28,5 C 33,9 C 33,9 C 48 % 0 lf 1016,3 hPa 0,0 l/m 2 min 0 min 783 W/m 29,3 km/h (5 Bft) 91,49 %
27.05.2017 12:14 28,5 C 33,3 C 34,4 C 48 % 0 lf 1016,3 hPa 0,0 l/m 2 min 0 min 784 W/m 35,6 km/h (5 Bft) 97,87 %
27.05.2017 12:16 28,6 C 33,9 C 35,6 C 49 % 0 lf 1016,2 hPa 0,0 l/m 2 min 0 min 785 W/m 23,0 km/h (4 Bft) 97,83 %
27.05.2017 12:18 28,6 C 32,2 C 35,0 C 47 % 0 lf 1016,2 hPa 0,0 l/m 2 min 0 min 786 W/m 27,2 km/h (4 Bft) 93,62 %
27.05.2017 12:20 28,6 C 32,2 C 35,0 C 47 % 0 lf 1016,2 hPa 0,0 l/m 2 min 0 min 792 W/m 29,3 km/h (5 Bft) 91,49 %
27.05.2017 12:22 28,5 C 33,3 C 35,0 C 48 % 0 lf 1016,2 hPa 0,0 l/m 2 min 0 min 796 W/m 33,5 km/h (5 Bft) 95,74 %
27.05.2017 12:24 28,6 C 33,9 C 35,0 C 48 % 0 lf 1016,2 hPa 0,0 l/m 2 min 0 min 798 W/m 25,1 km/h (4 Bft) 91,49 %
27.05.2017 12:26 28,6 C 33,3 C 35,0 C 47 % 0 lf 1016,2 hPa 0,0 l/m 2 min 0 min 800 W/m 33,5 km/h (5 Bft) 95,74 %
27.05.2017 12:28 28,6 C 33,3 C 35,0 C 48 % 0 lf 1016,1 hPa 0,0 l/m 2 min 0 min 805 W/m 29,3 km/h (5 Bft) 93,48 %
27.05.2017 12:30 28,7 C 33,9 C 35,0 C 48 % 0 lf 1016,2 hPa 0,0 l/m 2 min 0 min 806 W/m 29,3 km/h (5 Bft) 95,74 %
27.05.2017 12:32 28,7 C 34,4 C 34,4 C 47 % 0 lf 1016,2 hPa 0,0 l/m 2 min 0 min 807 W/m 31,4 km/h (5 Bft) 98,11 %
27.05.2017 12:34 28,8 C 36,7 C 33,9 C 49 % 0 lf 1016,2 hPa 0,0 l/m 2 min 0 min 812 W/m 29,3 km/h (5 Bft) 97,87 %
27.05.2017 12:36 28,9 C 36,7 C 33,3 C 47 % 0 lf 1016,2 hPa 0,0 l/m 2 min 0 min 819 W/m 31,4 km/h (5 Bft) 98,00 %
27.05.2017 12:38 29,1 C 35,0 C 32,2 C 46 % 0 lf 1016,2 hPa 0,0 l/m 2 min 0 min 820 W/m 31,4 km/h (5 Bft) 93,62 %
27.05.2017 12:40 29,2 C 35,6 C 31,7 C 47 % 0 lf 1016,2 hPa 0,0 l/m 2 min 0 min 818 W/m 23,0 km/h (4 Bft) 97,87 %
27.05.2017 12:42 29,2 C 35,0 C 31,1 C 47 % 0 lf 1016,2 hPa 0,0 l/m 2 min 0 min 817 W/m 33,5 km/h (5 Bft) 95,74 %
27.05.2017 12:44 29,3 C 36,1 C 30,6 C 46 % 0 lf 1016,2 hPa 0,0 l/m 2 min 0 min 818 W/m 29,3 km/h (5 Bft) 95,74 %
27.05.2017 12:46 29,4 C 35,0 C 31,1 C 46 % 0 lf 1016,1 hPa 0,0 l/m 2 min 0 min 819 W/m 23,0 km/h (4 Bft) 93,62 %
27.05.2017 12:48 29,5 C 35,0 C 31,1 C 46 % 0 lf 1016,1 hPa 0,0 l/m 2 min 0 min 821 W/m 23,0 km/h (4 Bft) 97,87 %
27.05.2017 12:50 29,6 C 35,0 C 31,1 C 46 % 0 lf 1016,1 hPa 0,0 l/m 2 min 0 min 821 W/m 31,4 km/h (5 Bft) 97,87 %
27.05.2017 12:52 29,6 C 35,6 C 31,1 C 46 % 0 lf 1016,2 hPa 0,0 l/m 2 min 0 min 823 W/m 27,2 km/h (4 Bft) 97,87 %
27.05.2017 12:54 29,7 C 35,0 C 31,1 C 46 % 0 lf 1016,2 hPa 0,0 l/m 2 min 0 min 826 W/m 29,3 km/h (5 Bft) 95,65 %
27.05.2017 12:56 29,7 C 35,0 C 32,2 C 46 % 0 lf 1016,2 hPa 0,0 l/m 2 min 0 min 828 W/m 27,2 km/h (4 Bft) 97,87 %
27.05.2017 12:58 29,8 C 33,9 C 32,8 C 45 % 0 lf 1016,2 hPa 0,0 l/m 2 min 0 min 830 W/m 25,1 km/h (4 Bft) 95,74 %
27.05.2017 13:00 29,8 C 35,0 C 33,3 C 45 % 0 lf 1016,2 hPa 0,0 l/m 2 min 0 min 835 W/m 27,2 km/h (4 Bft) 97,87 %
27.05.2017 13:02 29,8 C 33,9 C 33,3 C 45 % 0 lf 1016,1 hPa 0,0 l/m 2 min 0 min 833 W/m 25,1 km/h (4 Bft) 95,83 %
27.05.2017 13:04 29,8 C 33,3 C 32,8 C 45 % 0 lf 1016,0 hPa 0,0 l/m 2 min 0 min 833 W/m 37,7 km/h (5 Bft) 93,48 %
27.05.2017 13:06 29,7 C 33,9 C 32,8 C 45 % 0 lf 1016,1 hPa 0,0 l/m 2 min 0 min 837 W/m 27,2 km/h (4 Bft) 97,22 %
27.05.2017 13:08 29,7 C 33,9 C 32,2 C 45 % 0 lf 1016,1 hPa 0,0 l/m 2 min 0 min 839 W/m 18,8 km/h (3 Bft) 93,62 %
27.05.2017 13:10 29,7 C 35,0 C 31,7 C 46 % 0 lf 1016,0 hPa 0,0 l/m 2 min 0 min 840 W/m 35,6 km/h (5 Bft) 97,87 %
27.05.2017 13:12 29,8 C 35,0 C 31,1 C 45 % 0 lf 1015,9 hPa 0,0 l/m 2 min 0 min 842 W/m 31,4 km/h (5 Bft) 93,62 %
27.05.2017 13:14 29,8 C 35,6 C 30,6 C 44 % 0 lf 1015,9 hPa 0,0 l/m 2 min 0 min 842 W/m 31,4 km/h (5 Bft) 93,48 %
27.05.2017 13:16 29,8 C 35,6 C 30,6 C 45 % 0 lf 1015,9 hPa 0,0 l/m 2 min 0 min 843 W/m 27,2 km/h (4 Bft) 95,74 %
27.05.2017 13:18 29,9 C 35,6 C 31,1 C 45 % 0 lf 1016,0 hPa 0,0 l/m 2 min 0 min 845 W/m 23,0 km/h (4 Bft) 93,62 %
27.05.2017 13:20 29,9 C 34,4 C 31,1 C 44 % 0 lf 1016,1 hPa 0,0 l/m 2 min 0 min 851 W/m 31,4 km/h (5 Bft) 95,74 %
27.05.2017 13:22 29,9 C 34,4 C 30,6 C 43 % 0 lf 1016,1 hPa 0,0 l/m 2 min 0 min 848 W/m 31,4 km/h (5 Bft) 95,74 %
27.05.2017 13:24 29,9 C 33,9 C 30,6 C 43 % 0 lf 1016,0 hPa 0,0 l/m 2 min 0 min 846 W/m 27,2 km/h (4 Bft) 95,74 %
27.05.2017 13:26 29,9 C 34,4 C 30,6 C 44 % 0 lf 1016,0 hPa 0,0 l/m 2 min 0 min 845 W/m 20,9 km/h (4 Bft) 95,65 %
27.05.2017 13:28 29,9 C 35,6 C 30,6 C 44 % 0 lf 1016,0 hPa 0,0 l/m 2 min 0 min 844 W/m 27,2 km/h (4 Bft) 97,87 %
27.05.2017 13:30 30,0 C 35,6 C 30,6 C 45 % 0 lf 1016,0 hPa 0,0 l/m 2 min 0 min 846 W/m 27,2 km/h (4 Bft) 97,87 %
27.05.2017 13:32 30,1 C 36,1 C 31,1 C 44 % 0 lf 1015,9 hPa 0,0 l/m 2 min 0 min 846 W/m 20,9 km/h (4 Bft) 95,74 %
27.05.2017 13:34 30,2 C 35,6 C 31,1 C 44 % 0 lf 1015,9 hPa 0,0 l/m 2 min 0 min 846 W/m 23,0 km/h (4 Bft) 97,87 %
27.05.2017 13:36 30,2 C 35,0 C 30,6 C 43 % 0 lf 1015,9 hPa 0,0 l/m 2 min 0 min 850 W/m 23,0 km/h (4 Bft) 96,30 %
27.05.2017 13:38 30,3 C 36,7 C 31,1 C 44 % 0 lf 1015,9 hPa 0,0 l/m 2 min 0 min 848 W/m 27,2 km/h (4 Bft) 97,87 %
27.05.2017 13:40 30,4 C 36,1 C 30,6 C 42 % 0 lf 1015,9 hPa 0,0 l/m 2 min 0 min 849 W/m 25,1 km/h (4 Bft) 97,87 %
27.05.2017 13:42 30,4 C 36,7 C 31,1 C 43 % 0 lf 1015,9 hPa 0,0 l/m 2 min 0 min 853 W/m 27,2 km/h (4 Bft) 97,87 %
27.05.2017 13:44 30,5 C 36,1 C 30,6 C 42 % 0 lf 1015,9 hPa 0,0 l/m 2 min 0 min 847 W/m 23,0 km/h (4 Bft) 100,00 %
27.05.2017 13:46 30,6 C 35,0 C 30,6 C 42 % 0 lf 1015,8 hPa 0,0 l/m 2 min 0 min 845 W/m 23,0 km/h (4 Bft) 97,87 %
27.05.2017 13:48 30,6 C 35,6 C 30,6 C 42 % 0 lf 1015,7 hPa 0,0 l/m 2 min 0 min 848 W/m 29,3 km/h (5 Bft) 97,87 %
27.05.2017 13:50 30,6 C 35,0 C 30,6 C 42 % 0 lf 1015,7 hPa 0,0 l/m 2 min 0 min 847 W/m 27,2 km/h (4 Bft) 97,87 %
27.05.2017 13:52 30,6 C 34,4 C 30,6 C 42 % 0 lf 1015,6 hPa 0,0 l/m 2 min 0 min 848 W/m 20,9 km/h (4 Bft) 97,83 %
27.05.2017 13:54 30,6 C 35,6 C 31,1 C 43 % 0 lf 1015,6 hPa 0,0 l/m 2 min 0 min 848 W/m 23,0 km/h (4 Bft) 100,00 %
27.05.2017 13:56 30,6 C 33,9 C 32,2 C 41 % 0 lf 1015,7 hPa 0,0 l/m 2 min 0 min 848 W/m 37,7 km/h (5 Bft) 97,87 %
27.05.2017 13:58 30,5 C 33,9 C 33,3 C 40 % 0 lf 1015,8 hPa 0,0 l/m 2 min 0 min 847 W/m 33,5 km/h (5 Bft) 100,00 %
27.05.2017 14:00 30,5 C 34,4 C 34,4 C 40 % 0 lf 1015,7 hPa 0,0 l/m 2 min 0 min 851 W/m 29,3 km/h (5 Bft) 100,00 %
27.05.2017 14:02 30,4 C 35,0 C 35,0 C 40 % 0 lf 1015,7 hPa 0,0 l/m 2 min 0 min 849 W/m 25,1 km/h (4 Bft) 97,87 %
27.05.2017 14:04 30,4 C 35,0 C 35,6 C 40 % 0 lf 1015,7 hPa 0,0 l/m 2 min 0 min 848 W/m 25,1 km/h (4 Bft) 97,83 %
27.05.2017 14:06 30,4 C 36,1 C 36,7 C 41 % 0 lf 1015,6 hPa 0,0 l/m 2 min 0 min 847 W/m 25,1 km/h (4 Bft) 96,00 %
27.05.2017 14:08 30,6 C 35,6 C 37,2 C 41 % 0 lf 1015,6 hPa 0,0 l/m 2 min 0 min 845 W/m 25,1 km/h (4 Bft) 100,00 %
27.05.2017 14:10 30,6 C 35,0 C 37,8 C 41 % 0 lf 1015,6 hPa 0,0 l/m 2 min 0 min 848 W/m 23,0 km/h (4 Bft) 95,74 %
27.05.2017 14:12 30,6 C 35,6 C 38,3 C 41 % 0 lf 1015,6 hPa 0,0 l/m 2 min 0 min 845 W/m 18,8 km/h (3 Bft) 95,74 %
27.05.2017 14:14 30,7 C 36,1 C 38,3 C 42 % 0 lf 1015,6 hPa 0,0 l/m 2 min 0 min 846 W/m 20,9 km/h (4 Bft) 97,87 %
27.05.2017 14:16 30,7 C 35,0 C 38,3 C 40 % 0 lf 1015,7 hPa 0,0 l/m 2 min 0 min 845 W/m 31,4 km/h (5 Bft) 95,74 %
27.05.2017 14:18 30,7 C 34,4 C 38,3 C 40 % 0 lf 1015,7 hPa 0,0 l/m 2 min 0 min 843 W/m 29,3 km/h (5 Bft) 97,87 %
27.05.2017 14:20 30,7 C 35,0 C 38,3 C 40 % 0 lf 1015,5 hPa 0,0 l/m 2 min 0 min 841 W/m 25,1 km/h (4 Bft) 97,87 %
27.05.2017 14:22 30,7 C 35,6 C 38,9 C 42 % 0 lf 1015,6 hPa 0,0 l/m 2 min 0 min 844 W/m 29,3 km/h (5 Bft) 91,43 %
27.05.2017 14:24 30,8 C 36,1 C 38,9 C 41 % 0 lf 1015,6 hPa 0,0 l/m 2 min 0 min 846 W/m 29,3 km/h (5 Bft) 97,83 %
27.05.2017 14:26 30,8 C 35,0 C 39,4 C 41 % 0 lf 1015,6 hPa 0,0 l/m 2 min 0 min 839 W/m 23,0 km/h (4 Bft) 97,87 %
27.05.2017 14:28 30,8 C 35,6 C 39,4 C 41 % 0 lf 1015,5 hPa 0,0 l/m 2 min 0 min 836 W/m 23,0 km/h (4 Bft) 95,74 %
27.05.2017 14:30 30,8 C 35,0 C 39,4 C 40 % 0 lf 1015,5 hPa 0,0 l/m 2 min 0 min 839 W/m 27,2 km/h (4 Bft) 93,62 %
27.05.2017 14:32 30,8 C 35,0 C 39,4 C 41 % 0 lf 1015,5 hPa 0,0 l/m 2 min 0 min 840 W/m 29,3 km/h (5 Bft) 97,87 %
27.05.2017 14:34 30,9 C 35,0 C 39,4 C 40 % 0 lf 1015,5 hPa 0,0 l/m 2 min 0 min 838 W/m 25,1 km/h (4 Bft) 95,74 %
27.05.2017 14:36 30,9 C 35,0 C 39,4 C 40 % 0 lf 1015,5 hPa 0,0 l/m 2 min 0 min 837 W/m 23,0 km/h (4 Bft) 94,44 %
27.05.2017 14:38 30,9 C 35,0 C 38,9 C 40 % 0 lf 1015,5 hPa 0,0 l/m 2 min 0 min 836 W/m 25,1 km/h (4 Bft) 97,87 %
27.05.2017 14:40 30,9 C 35,0 C 40,0 C 41 % 0 lf 1015,5 hPa 0,0 l/m 2 min 0 min 835 W/m 25,1 km/h (4 Bft) 97,83 %
27.05.2017 14:42 30,9 C 35,6 C 40,0 C 41 % 0 lf 1015,4 hPa 0,0 l/m 2 min 0 min 836 W/m 18,8 km/h (3 Bft) 95,83 %
27.05.2017 14:44 30,9 C 34,4 C 40,0 C 40 % 0 lf 1015,4 hPa 0,0 l/m 2 min 0 min 834 W/m 33,5 km/h (5 Bft) 95,74 %
27.05.2017 14:46 30,9 C 34,4 C 40,0 C 40 % 0 lf 1015,3 hPa 0,0 l/m 2 min 0 min 827 W/m 25,1 km/h (4 Bft) 95,74 %
27.05.2017 14:48 31,0 C 35,0 C 40,0 C 40 % 0 lf 1015,4 hPa 0,0 l/m 2 min 0 min 823 W/m 16,7 km/h (3 Bft) 95,74 %
27.05.2017 14:50 31,0 C 35,0 C 40,0 C 41 % 0 lf 1015,4 hPa 0,0 l/m 2 min 0 min 820 W/m 23,0 km/h (4 Bft) 95,65 %
27.05.2017 14:52 31,1 C 35,6 C 40,6 C 41 % 0 lf 1015,3 hPa 0,0 l/m 2 min 0 min 818 W/m 25,1 km/h (4 Bft) 89,36 %
27.05.2017 14:54 31,1 C 35,6 C 40,6 C 42 % 0 lf 1015,3 hPa 0,0 l/m 2 min 0 min 818 W/m 23,0 km/h (4 Bft) 95,74 %
27.05.2017 14:56 31,1 C 35,0 C 40,6 C 40 % 0 lf 1015,4 hPa 0,0 l/m 2 min 0 min 816 W/m 29,3 km/h (5 Bft) 91,49 %
27.05.2017 14:58 31,2 C 34,4 C 40,0 C 39 % 0 lf 1015,3 hPa 0,0 l/m 2 min 0 min 812 W/m 29,3 km/h (5 Bft) 91,49 %
27.05.2017 15:00 31,1 C 34,4 C 40,0 C 39 % 0 lf 1015,3 hPa 0,0 l/m 2 min 0 min 809 W/m 20,9 km/h (4 Bft) 87,23 %
27.05.2017 15:02 31,1 C 35,6 C 40,6 C 41 % 0 lf 1015,2 hPa 0,0 l/m 2 min 0 min 808 W/m 23,0 km/h (4 Bft) 93,48 %
27.05.2017 15:04 31,2 C 35,0 C 40,6 C 40 % 0 lf 1015,2 hPa 0,0 l/m 2 min 0 min 804 W/m 27,2 km/h (4 Bft) 95,74 %
27.05.2017 15:06 31,2 C 35,0 C 40,0 C 40 % 0 lf 1015,2 hPa 0,0 l/m 2 min 0 min 806 W/m 27,2 km/h (4 Bft) 95,74 %
27.05.2017 15:08 31,2 C 35,6 C 41,1 C 41 % 0 lf 1015,2 hPa 0,0 l/m 2 min 0 min 806 W/m 14,6 km/h (3 Bft) 95,74 %
27.05.2017 15:10 31,3 C 35,6 C 41,1 C 41 % 0 lf 1015,1 hPa 0,0 l/m 2 min 0 min 803 W/m 25,1 km/h (4 Bft) 93,62 %
27.05.2017 15:12 31,3 C 35,6 C 41,1 C 40 % 0 lf 1015,1 hPa 0,0 l/m 2 min 0 min 799 W/m 25,1 km/h (4 Bft) 93,75 %
27.05.2017 15:14 31,4 C 36,1 C 41,7 C 40 % 0 lf 1015,0 hPa 0,0 l/m 2 min 0 min 798 W/m 18,8 km/h (3 Bft) 93,48 %
27.05.2017 15:16 31,4 C 35,0 C 41,1 C 39 % 0 lf 1015,1 hPa 0,0 l/m 2 min 0 min 797 W/m 20,9 km/h (4 Bft) 97,87 %
27.05.2017 15:18 31,5 C 36,1 C 41,7 C 42 % 0 lf 1015,1 hPa 0,0 l/m 2 min 0 min 794 W/m 14,6 km/h (3 Bft) 91,49 %
27.05.2017 15:20 31,6 C 36,7 C 42,2 C 41 % 0 lf 1015,1 hPa 0,0 l/m 2 min 0 min 789 W/m 23,0 km/h (4 Bft) 95,74 %
27.05.2017 15:22 31,6 C 35,0 C 41,7 C 40 % 0 lf 1015,0 hPa 0,0 l/m 2 min 0 min 786 W/m 31,4 km/h (5 Bft) 93,75 %
27.05.2017 15:24 31,6 C 33,9 C 40,6 C 39 % 0 lf 1015,0 hPa 0,0 l/m 2 min 0 min 783 W/m 27,2 km/h (4 Bft) 95,74 %
27.05.2017 15:26 31,6 C 34,4 C 40,6 C 40 % 0 lf 1015,0 hPa 0,0 l/m 2 min 0 min 781 W/m 29,3 km/h (5 Bft) 91,30 %
27.05.2017 15:28 31,6 C 35,0 C 41,1 C 40 % 0 lf 1015,0 hPa 0,0 l/m 2 min 0 min 779 W/m 29,3 km/h (5 Bft) 95,74 %
27.05.2017 15:30 31,6 C 35,0 C 40,6 C 39 % 0 lf 1015,0 hPa 0,0 l/m 2 min 0 min 776 W/m 31,4 km/h (5 Bft) 93,62 %
27.05.2017 15:32 31,6 C 34,4 C 40,0 C 39 % 0 lf 1015,0 hPa 0,0 l/m 2 min 0 min 773 W/m 20,9 km/h (4 Bft) 97,92 %
27.05.2017 15:34 31,6 C 34,4 C 40,6 C 40 % 0 lf 1014,9 hPa 0,0 l/m 2 min 0 min 771 W/m 18,8 km/h (3 Bft) 97,87 %
27.05.2017 15:36 31,5 C 34,4 C 41,1 C 40 % 0 lf 1015,1 hPa 0,0 l/m 2 min 0 min 766 W/m 31,4 km/h (5 Bft) 97,14 %
27.05.2017 15:38 31,5 C 34,4 C 40,6 C 40 % 0 lf 1015,0 hPa 0,0 l/m 2 min 0 min 764 W/m 23,0 km/h (4 Bft) 97,87 %
27.05.2017 15:40 31,5 C 33,9 C 40,6 C 39 % 0 lf 1015,0 hPa 0,0 l/m 2 min 0 min 763 W/m 25,1 km/h (4 Bft) 95,74 %
27.05.2017 15:42 31,4 C 33,9 C 41,1 C 40 % 0 lf 1014,9 hPa 0,0 l/m 2 min 0 min 760 W/m 20,9 km/h (4 Bft) 100,00 %
27.05.2017 15:44 31,5 C 35,0 C 41,1 C 41 % 0 lf 1014,9 hPa 0,0 l/m 2 min 0 min 758 W/m 29,3 km/h (5 Bft) 100,00 %
27.05.2017 15:46 31,5 C 35,0 C 41,1 C 40 % 0 lf 1015,0 hPa 0,0 l/m 2 min 0 min 754 W/m 25,1 km/h (4 Bft) 100,00 %
27.05.2017 15:48 31,5 C 34,4 C 40,6 C 40 % 0 lf 1015,0 hPa 0,0 l/m 2 min 0 min 749 W/m 23,0 km/h (4 Bft) 100,00 %
27.05.2017 15:50 31,5 C 33,9 C 40,0 C 40 % 0 lf 1015,0 hPa 0,0 l/m 2 min 0 min 747 W/m 27,2 km/h (4 Bft) 94,92 %
27.05.2017 15:52 31,6 C 34,4 C 40,6 C 40 % 0 lf 1014,9 hPa 0,0 l/m 2 min 0 min 746 W/m 23,0 km/h (4 Bft) 100,00 %
27.05.2017 15:54 31,6 C 34,4 C 41,1 C 40 % 0 lf 1014,8 hPa 0,0 l/m 2 min 0 min 744 W/m 25,1 km/h (4 Bft) 100,00 %
27.05.2017 15:56 31,6 C 34,4 C 40,6 C 40 % 0 lf 1014,9 hPa 0,0 l/m 2 min 0 min 743 W/m 23,0 km/h (4 Bft) 100,00 %
27.05.2017 15:58 31,6 C 34,4 C 41,1 C 40 % 0 lf 1014,8 hPa 0,0 l/m 2 min 0 min 741 W/m 27,2 km/h (4 Bft) 97,83 %
27.05.2017 16:00 31,7 C 35,0 C 41,7 C 42 % 0 lf 1014,9 hPa 0,0 l/m 2 min 0 min 737 W/m 25,1 km/h (4 Bft) 100,00 %
27.05.2017 16:02 31,7 C 33,3 C 41,7 C 39 % 0 lf 1014,8 hPa 0,0 l/m 2 min 0 min 732 W/m 20,9 km/h (4 Bft) 97,87 %
27.05.2017 16:04 31,7 C 33,3 C 41,1 C 39 % 0 lf 1014,8 hPa 0,0 l/m 2 min 0 min 728 W/m 18,8 km/h (3 Bft) 97,87 %
27.05.2017 16:06 31,7 C 33,9 C 41,1 C 41 % 0 lf 1014,9 hPa 0,0 l/m 2 min 0 min 720 W/m 16,7 km/h (3 Bft) 100,00 %
27.05.2017 16:08 31,7 C 33,3 C 41,7 C 40 % 0 lf 1014,8 hPa 0,0 l/m 2 min 0 min 688 W/m 20,9 km/h (4 Bft) 91,49 %
27.05.2017 16:10 31,7 C 33,3 C 40,6 C 40 % 0 lf 1014,8 hPa 0,0 l/m 2 min 0 min 691 W/m 29,3 km/h (5 Bft) 97,87 %
27.05.2017 16:12 31,7 C 33,3 C 40,6 C 40 % 0 lf 1014,7 hPa 0,0 l/m 2 min 0 min 693 W/m 27,2 km/h (4 Bft) 97,83 %
27.05.2017 16:14 31,7 C 33,9 C 41,1 C 40 % 0 lf 1014,8 hPa 0,0 l/m 2 min 0 min 715 W/m 23,0 km/h (4 Bft) 95,74 %
27.05.2017 16:16 31,8 C 33,9 C 41,1 C 40 % 0 lf 1014,7 hPa 0,0 l/m 2 min 0 min 713 W/m 20,9 km/h (4 Bft) 95,74 %
27.05.2017 16:18 31,8 C 33,9 C 41,1 C 40 % 0 lf 1014,7 hPa 0,0 l/m 2 min 0 min 709 W/m 20,9 km/h (4 Bft) 95,74 %
27.05.2017 16:20 31,9 C 33,9 C 41,1 C 40 % 0 lf 1014,7 hPa 0,0 l/m 2 min 0 min 668 W/m 27,2 km/h (4 Bft) 96,55 %
27.05.2017 16:22 31,9 C 32,8 C 39,4 C 39 % 0 lf 1014,7 hPa 0,0 l/m 2 min 0 min 687 W/m 25,1 km/h (4 Bft) 97,14 %
27.05.2017 16:24 31,9 C 32,2 C 38,9 C 39 % 0 lf 1014,7 hPa 0,0 l/m 2 min 0 min 737 W/m 27,2 km/h (4 Bft) 95,74 %
27.05.2017 16:26 31,9 C 32,2 C 38,9 C 39 % 0 lf 1014,7 hPa 0,0 l/m 2 min 0 min 733 W/m 23,0 km/h (4 Bft) 97,87 %
27.05.2017 16:28 31,9 C 32,2 C 39,4 C 39 % 0 lf 1014,6 hPa 0,0 l/m 2 min 0 min 729 W/m 18,8 km/h (3 Bft) 95,74 %
27.05.2017 16:30 31,8 C 31,7 C 38,3 C 39 % 0 lf 1014,6 hPa 0,0 l/m 2 min 0 min 726 W/m 23,0 km/h (4 Bft) 97,87 %
27.05.2017 16:32 31,8 C 32,2 C 36,7 C 39 % 0 lf 1014,7 hPa 0,0 l/m 2 min 0 min 722 W/m 31,4 km/h (5 Bft) 97,87 %
27.05.2017 16:34 31,9 C 32,8 C 35,0 C 41 % 0 lf 1014,6 hPa 0,0 l/m 2 min 0 min 718 W/m 16,7 km/h (3 Bft) 97,83 %
27.05.2017 16:36 31,9 C 32,8 C 34,4 C 41 % 0 lf 1014,7 hPa 0,0 l/m 2 min 0 min 714 W/m 20,9 km/h (4 Bft) 95,74 %
27.05.2017 16:38 32,0 C 32,8 C 33,9 C 39 % 0 lf 1014,7 hPa 0,0 l/m 2 min 0 min 711 W/m 18,8 km/h (3 Bft) 93,62 %
27.05.2017 16:40 32,1 C 32,2 C 32,8 C 39 % 0 lf 1014,7 hPa 0,0 l/m 2 min 0 min 707 W/m 33,5 km/h (5 Bft) 97,87 %
27.05.2017 16:42 32,1 C 32,2 C 32,8 C 38 % 0 lf 1014,7 hPa 0,0 l/m 2 min 0 min 703 W/m 25,1 km/h (4 Bft) 97,87 %
27.05.2017 16:44 32,1 C 32,2 C 32,8 C 38 % 0 lf 1014,6 hPa 0,0 l/m 2 min 0 min 699 W/m 18,8 km/h (3 Bft) 97,87 %
27.05.2017 16:46 32,1 C 32,2 C 32,8 C 39 % 0 lf 1014,6 hPa 0,0 l/m 2 min 0 min 695 W/m 16,7 km/h (3 Bft) 95,65 %
27.05.2017 16:48 32,1 C 32,8 C 32,2 C 39 % 0 lf 1014,6 hPa 0,0 l/m 2 min 0 min 691 W/m 20,9 km/h (4 Bft) 93,62 %
27.05.2017 16:50 32,1 C 32,2 C 32,8 C 38 % 0 lf 1014,5 hPa 0,0 l/m 2 min 0 min 687 W/m 18,8 km/h (3 Bft) 97,87 %
27.05.2017 16:52 32,2 C 32,2 C 33,3 C 39 % 0 lf 1014,5 hPa 0,0 l/m 2 min 0 min 683 W/m 31,4 km/h (5 Bft) 97,87 %
27.05.2017 16:54 32,2 C 32,2 C 33,3 C 38 % 0 lf 1014,5 hPa 0,0 l/m 2 min 0 min 679 W/m 25,1 km/h (4 Bft) 97,87 %
27.05.2017 16:56 32,2 C 32,2 C 33,9 C 38 % 0 lf 1014,6 hPa 0,0 l/m 2 min 0 min 675 W/m 20,9 km/h (4 Bft) 97,87 %
27.05.2017 16:58 32,2 C 32,2 C 33,9 C 38 % 0 lf 1014,5 hPa 0,0 l/m 2 min 0 min 671 W/m 16,7 km/h (3 Bft) 95,65 %
27.05.2017 17:00 32,2 C 32,2 C 33,3 C 38 % 0 lf 1014,5 hPa 0,0 l/m 2 min 0 min 667 W/m 25,1 km/h (4 Bft) 91,49 %
27.05.2017 17:02 32,2 C 32,2 C 32,8 C 38 % 0 lf 1014,6 hPa 0,0 l/m 2 min 0 min 662 W/m 29,3 km/h (5 Bft) 97,87 %
27.05.2017 17:04 32,2 C 32,8 C 32,2 C 38 % 0 lf 1014,5 hPa 0,0 l/m 2 min 0 min 658 W/m 20,9 km/h (4 Bft) 95,74 %
27.05.2017 17:06 32,2 C 32,2 C 31,7 C 38 % 0 lf 1014,5 hPa 0,0 l/m 2 min 0 min 654 W/m 23,0 km/h (4 Bft) 97,87 %
27.05.2017 17:08 32,2 C 32,8 C 31,1 C 38 % 0 lf 1014,5 hPa 0,0 l/m 2 min 0 min 650 W/m 20,9 km/h (4 Bft) 95,65 %
27.05.2017 17:10 32,3 C 32,2 C 31,1 C 38 % 0 lf 1014,4 hPa 0,0 l/m 2 min 0 min 645 W/m 27,2 km/h (4 Bft) 95,74 %
27.05.2017 17:12 32,3 C 32,2 C 31,1 C 38 % 0 lf 1014,5 hPa 0,0 l/m 2 min 0 min 641 W/m 23,0 km/h (4 Bft) 95,74 %
27.05.2017 17:14 32,3 C 32,8 C 31,1 C 38 % 0 lf 1014,5 hPa 0,0 l/m 2 min 0 min 637 W/m 14,6 km/h (3 Bft) 93,62 %
27.05.2017 17:16 32,3 C 32,8 C 31,1 C 39 % 0 lf 1014,5 hPa 0,0 l/m 2 min 0 min 632 W/m 16,7 km/h (3 Bft) 95,74 %
27.05.2017 17:18 32,3 C 32,8 C 31,1 C 38 % 0 lf 1014,5 hPa 0,0 l/m 2 min 0 min 628 W/m 18,8 km/h (3 Bft) 93,62 %
27.05.2017 17:20 32,4 C 32,2 C 31,1 C 38 % 0 lf 1014,6 hPa 0,0 l/m 2 min 0 min 623 W/m 16,7 km/h (3 Bft) 91,49 %
27.05.2017 17:22 32,4 C 32,8 C 31,1 C 38 % 0 lf 1014,6 hPa 0,0 l/m 2 min 0 min 619 W/m 16,7 km/h (3 Bft) 93,48 %
27.05.2017 17:24 32,4 C 32,8 C 30,6 C 37 % 0 lf 1014,6 hPa 0,0 l/m 2 min 0 min 615 W/m 27,2 km/h (4 Bft) 95,74 %
27.05.2017 17:26 32,4 C 32,8 C 30,6 C 37 % 0 lf 1014,6 hPa 0,0 l/m 2 min 0 min 610 W/m 18,8 km/h (3 Bft) 95,74 %
27.05.2017 17:28 32,4 C 32,2 C 30,0 C 36 % 0 lf 1014,5 hPa 0,0 l/m 2 min 0 min 606 W/m 18,8 km/h (3 Bft) 95,74 %
27.05.2017 17:30 32,4 C 32,2 C 30,0 C 37 % 0 lf 1014,5 hPa 0,0 l/m 2 min 0 min 601 W/m 23,0 km/h (4 Bft) 97,87 %
27.05.2017 17:32 32,4 C 32,2 C 30,0 C 37 % 0 lf 1014,4 hPa 0,0 l/m 2 min 0 min 596 W/m 25,1 km/h (4 Bft) 94,34 %
27.05.2017 17:34 32,4 C 32,2 C 30,0 C 38 % 0 lf 1014,5 hPa 0,0 l/m 2 min 0 min 592 W/m 23,0 km/h (4 Bft) 97,87 %
27.05.2017 17:36 32,3 C 32,2 C 30,0 C 37 % 0 lf 1014,5 hPa 0,0 l/m 2 min 0 min 587 W/m 18,8 km/h (3 Bft) 97,96 %
27.05.2017 17:38 32,3 C 32,2 C 30,0 C 37 % 0 lf 1014,5 hPa 0,0 l/m 2 min 0 min 583 W/m 16,7 km/h (3 Bft) 97,87 %
27.05.2017 17:40 32,3 C 32,2 C 29,4 C 37 % 0 lf 1014,5 hPa 0,0 l/m 2 min 0 min 578 W/m 18,8 km/h (3 Bft) 97,87 %
27.05.2017 17:42 32,3 C 32,2 C 29,4 C 38 % 0 lf 1014,4 hPa 0,0 l/m 2 min 0 min 573 W/m 20,9 km/h (4 Bft) 95,83 %
27.05.2017 17:44 32,2 C 32,2 C 29,4 C 38 % 0 lf 1014,5 hPa 0,0 l/m 2 min 0 min 569 W/m 18,8 km/h (3 Bft) 93,62 %
27.05.2017 17:46 32,2 C 32,2 C 29,4 C 37 % 0 lf 1014,5 hPa 0,0 l/m 2 min 0 min 564 W/m 18,8 km/h (3 Bft) 95,65 %
27.05.2017 17:48 32,2 C 32,2 C 29,4 C 37 % 0 lf 1014,5 hPa 0,0 l/m 2 min 0 min 559 W/m 23,0 km/h (4 Bft) 95,74 %
27.05.2017 17:50 32,2 C 32,2 C 29,4 C 37 % 0 lf 1014,5 hPa 0,0 l/m 2 min 0 min 554 W/m 20,9 km/h (4 Bft) 93,62 %
27.05.2017 17:52 32,2 C 32,2 C 29,4 C 38 % 0 lf 1014,4 hPa 0,0 l/m 2 min 0 min 550 W/m 20,9 km/h (4 Bft) 93,62 %
27.05.2017 17:54 32,1 C 32,2 C 29,4 C 38 % 0 lf 1014,4 hPa 0,0 l/m 2 min 0 min 545 W/m 16,7 km/h (3 Bft) 95,74 %
27.05.2017 17:56 32,1 C 31,7 C 29,4 C 37 % 0 lf 1014,4 hPa 0,0 l/m 2 min 0 min 540 W/m 20,9 km/h (4 Bft) 93,62 %
27.05.2017 17:58 32,0 C 31,7 C 29,4 C 37 % 0 lf 1014,4 hPa 0,0 l/m 2 min 0 min 535 W/m 20,9 km/h (4 Bft) 95,65 %
27.05.2017 18:00 31,9 C 31,7 C 29,4 C 38 % 0 lf 1014,4 hPa 0,0 l/m 2 min 0 min 530 W/m 20,9 km/h (4 Bft) 97,87 %
27.05.2017 18:02 31,9 C 31,7 C 28,9 C 38 % 0 lf 1014,3 hPa 0,0 l/m 2 min 0 min 525 W/m 23,0 km/h (4 Bft) 97,87 %
27.05.2017 18:04 31,8 C 31,1 C 28,9 C 37 % 0 lf 1014,5 hPa 0,0 l/m 2 min 0 min 521 W/m 25,1 km/h (4 Bft) 95,74 %
27.05.2017 18:06 31,8 C 31,7 C 28,9 C 38 % 0 lf 1014,5 hPa 0,0 l/m 2 min 0 min 516 W/m 16,7 km/h (3 Bft) 97,87 %
27.05.2017 18:08 31,7 C 31,7 C 28,9 C 38 % 0 lf 1014,4 hPa 0,0 l/m 2 min 0 min 511 W/m 20,9 km/h (4 Bft) 95,83 %
27.05.2017 18:10 31,7 C 31,7 C 28,9 C 38 % 0 lf 1014,4 hPa 0,0 l/m 2 min 0 min 506 W/m 18,8 km/h (3 Bft) 97,83 %
27.05.2017 18:12 31,6 C 31,1 C 28,9 C 38 % 0 lf 1014,5 hPa 0,0 l/m 2 min 0 min 501 W/m 16,7 km/h (3 Bft) 97,92 %
27.05.2017 18:14 31,6 C 31,1 C 28,9 C 39 % 0 lf 1014,5 hPa 0,0 l/m 2 min 0 min 496 W/m 14,6 km/h (3 Bft) 93,62 %
27.05.2017 18:16 31,5 C 31,7 C 28,9 C 39 % 0 lf 1014,4 hPa 0,0 l/m 2 min 0 min 491 W/m 18,8 km/h (3 Bft) 95,65 %
27.05.2017 18:18 31,5 C 31,7 C 28,9 C 39 % 0 lf 1014,4 hPa 0,0 l/m 2 min 0 min 486 W/m 20,9 km/h (4 Bft) 97,87 %
27.05.2017 18:20 31,4 C 31,7 C 28,9 C 39 % 0 lf 1014,4 hPa 0,0 l/m 2 min 0 min 641 W/m 18,8 km/h (3 Bft) 97,87 %
27.05.2017 18:22 31,4 C 31,1 C 28,9 C 38 % 0 lf 1014,3 hPa 0,0 l/m 2 min 0 min 634 W/m 16,7 km/h (3 Bft) 97,87 %
27.05.2017 18:24 31,4 C 31,1 C 28,9 C 39 % 0 lf 1014,3 hPa 0,0 l/m 2 min 0 min 626 W/m 23,0 km/h (4 Bft) 93,62 %
27.05.2017 18:26 31,3 C 31,1 C 28,3 C 39 % 0 lf 1014,3 hPa 0,0 l/m 2 min 0 min 619 W/m 20,9 km/h (4 Bft) 95,74 %
27.05.2017 18:28 31,3 C 31,1 C 28,3 C 39 % 0 lf 1014,3 hPa 0,0 l/m 2 min 0 min 610 W/m 20,9 km/h (4 Bft) 97,83 %
27.05.2017 18:30 31,3 C 31,1 C 28,3 C 40 % 0 lf 1014,4 hPa 0,0 l/m 2 min 0 min 602 W/m 20,9 km/h (4 Bft) 95,74 %
27.05.2017 18:32 31,2 C 31,1 C 28,3 C 39 % 0 lf 1014,4 hPa 0,0 l/m 2 min 0 min 593 W/m 23,0 km/h (4 Bft) 94,29 %
27.05.2017 18:34 31,2 C 31,1 C 28,3 C 39 % 0 lf 1014,4 hPa 0,0 l/m 2 min 0 min 584 W/m 16,7 km/h (3 Bft) 93,62 %
27.05.2017 18:36 31,2 C 31,1 C 28,3 C 40 % 0 lf 1014,4 hPa 0,0 l/m 2 min 0 min 578 W/m 16,7 km/h (3 Bft) 97,87 %
27.05.2017 18:38 31,1 C 31,1 C 27,8 C 40 % 0 lf 1014,3 hPa 0,0 l/m 2 min 0 min 569 W/m 14,6 km/h (3 Bft) 95,74 %
27.05.2017 18:40 31,1 C 31,1 C 28,3 C 40 % 0 lf 1014,3 hPa 0,0 l/m 2 min 0 min 561 W/m 14,6 km/h (3 Bft) 97,87 %
27.05.2017 18:42 31,1 C 31,1 C 28,3 C 40 % 0 lf 1014,2 hPa 0,0 l/m 2 min 0 min 551 W/m 18,8 km/h (3 Bft) 100,00 %
27.05.2017 18:44 31,1 C 31,1 C 28,3 C 40 % 0 lf 1014,3 hPa 0,0 l/m 2 min 0 min 543 W/m 12,6 km/h (3 Bft) 100,00 %
27.05.2017 18:46 31,0 C 31,1 C 28,3 C 41 % 0 lf 1014,2 hPa 0,0 l/m 2 min 0 min 537 W/m 20,9 km/h (4 Bft) 97,83 %
27.05.2017 18:48 31,0 C 31,1 C 28,3 C 41 % 0 lf 1014,3 hPa 0,0 l/m 2 min 0 min 530 W/m 16,7 km/h (3 Bft) 100,00 %
27.05.2017 18:50 31,0 C 31,1 C 28,3 C 41 % 0 lf 1014,3 hPa 0,0 l/m 2 min 0 min 522 W/m 20,9 km/h (4 Bft) 100,00 %
27.05.2017 18:52 30,9 C 30,6 C 28,3 C 40 % 0 lf 1014,3 hPa 0,0 l/m 2 min 0 min 516 W/m 18,8 km/h (3 Bft) 95,74 %
27.05.2017 18:54 30,9 C 30,6 C 28,3 C 41 % 0 lf 1014,4 hPa 0,0 l/m 2 min 0 min 507 W/m 16,7 km/h (3 Bft) 97,87 %
27.05.2017 18:56 30,9 C 30,6 C 28,3 C 41 % 0 lf 1014,3 hPa 0,0 l/m 2 min 0 min 498 W/m 18,8 km/h (3 Bft) 97,87 %
27.05.2017 18:58 30,9 C 30,6 C 28,3 C 41 % 0 lf 1014,3 hPa 0,0 l/m 2 min 0 min 491 W/m 14,6 km/h (3 Bft) 93,48 %
27.05.2017 19:00 30,8 C 30,6 C 28,3 C 41 % 0 lf 1014,4 hPa 0,0 l/m 2 min 0 min 483 W/m 14,6 km/h (3 Bft) 97,87 %
27.05.2017 19:02 30,8 C 30,6 C 27,8 C 41 % 0 lf 1014,3 hPa 0,0 l/m 2 min 0 min 476 W/m 16,7 km/h (3 Bft) 93,88 %
27.05.2017 19:04 30,8 C 30,6 C 27,8 C 41 % 0 lf 1014,2 hPa 0,0 l/m 2 min 0 min 468 W/m 18,8 km/h (3 Bft) 97,87 %
27.05.2017 19:06 30,7 C 30,6 C 27,8 C 41 % 0 lf 1014,2 hPa 0,0 l/m 2 min 0 min 460 W/m 16,7 km/h (3 Bft) 95,74 %
27.05.2017 19:08 30,7 C 30,6 C 27,8 C 41 % 0 lf 1014,2 hPa 0,0 l/m 2 min 0 min 453 W/m 23,0 km/h (4 Bft) 93,48 %
27.05.2017 19:10 30,7 C 30,6 C 27,8 C 41 % 0 lf 1014,2 hPa 0,0 l/m 2 min 0 min 447 W/m 25,1 km/h (4 Bft) 97,87 %
27.05.2017 19:12 30,6 C 30,6 C 27,8 C 41 % 0 lf 1014,1 hPa 0,0 l/m 2 min 0 min 437 W/m 20,9 km/h (4 Bft) 97,92 %
27.05.2017 19:14 30,6 C 30,0 C 27,8 C 41 % 0 lf 1014,2 hPa 0,0 l/m 2 min 0 min 430 W/m 18,8 km/h (3 Bft) 97,87 %
27.05.2017 19:16 30,6 C 30,0 C 27,8 C 42 % 0 lf 1014,2 hPa 0,0 l/m 2 min 0 min 421 W/m 16,7 km/h (3 Bft) 97,87 %
27.05.2017 19:18 30,5 C 30,0 C 27,8 C 42 % 0 lf 1014,1 hPa 0,0 l/m 2 min 0 min 415 W/m 16,7 km/h (3 Bft) 93,62 %
27.05.2017 19:20 30,4 C 30,0 C 27,8 C 42 % 0 lf 1014,2 hPa 0,0 l/m 2 min 0 min 406 W/m 14,6 km/h (3 Bft) 97,83 %
27.05.2017 19:22 30,4 C 30,0 C 27,8 C 42 % 0 lf 1014,2 hPa 0,0 l/m 2 min 0 min 397 W/m 14,6 km/h (3 Bft) 95,74 %
27.05.2017 19:24 30,4 C 30,0 C 27,8 C 42 % 0 lf 1014,2 hPa 0,0 l/m 2 min 0 min 387 W/m 16,7 km/h (3 Bft) 95,74 %
27.05.2017 19:26 30,4 C 30,0 C 27,8 C 43 % 0 lf 1014,2 hPa 0,0 l/m 2 min 0 min 376 W/m 14,6 km/h (3 Bft) 100,00 %
27.05.2017 19:28 30,3 C 30,0 C 27,2 C 43 % 0 lf 1014,2 hPa 0,0 l/m 2 min 0 min 367 W/m 16,7 km/h (3 Bft) 100,00 %
27.05.2017 19:30 30,3 C 30,0 C 27,2 C 43 % 0 lf 1014,2 hPa 0,0 l/m 2 min 0 min 355 W/m 18,8 km/h (3 Bft) 97,87 %
27.05.2017 19:32 30,3 C 30,0 C 27,2 C 43 % 0 lf 1014,1 hPa 0,0 l/m 2 min 0 min 345 W/m 16,7 km/h (3 Bft) 95,74 %
27.05.2017 19:34 30,3 C 30,0 C 27,2 C 44 % 0 lf 1014,2 hPa 0,0 l/m 2 min 0 min 335 W/m 23,0 km/h (4 Bft) 97,87 %
27.05.2017 19:36 30,2 C 30,0 C 27,2 C 44 % 0 lf 1014,1 hPa 0,0 l/m 2 min 0 min 325 W/m 12,6 km/h (3 Bft) 91,84 %
27.05.2017 19:38 30,2 C 30,0 C 27,2 C 44 % 0 lf 1014,2 hPa 0,0 l/m 2 min 0 min 315 W/m 14,6 km/h (3 Bft) 97,83 %
27.05.2017 19:40 30,2 C 29,4 C 26,7 C 44 % 0 lf 1014,1 hPa 0,0 l/m 2 min 0 min 303 W/m 14,6 km/h (3 Bft) 97,87 %
27.05.2017 19:42 30,1 C 29,4 C 27,2 C 44 % 0 lf 1014,1 hPa 0,0 l/m 2 min 0 min 293 W/m 14,6 km/h (3 Bft) 97,14 %
27.05.2017 19:44 30,1 C 29,4 C 27,2 C 44 % 0 lf 1014,1 hPa 0,0 l/m 2 min 0 min 285 W/m 12,6 km/h (3 Bft) 93,62 %
27.05.2017 19:46 30,1 C 29,4 C 27,2 C 44 % 0 lf 1014,1 hPa 0,0 l/m 2 min 0 min 277 W/m 18,8 km/h (3 Bft) 95,74 %
27.05.2017 19:48 30,0 C 29,4 C 26,7 C 44 % 0 lf 1014,2 hPa 0,0 l/m 2 min 0 min 268 W/m 12,6 km/h (3 Bft) 91,49 %
27.05.2017 19:50 29,9 C 29,4 C 26,7 C 44 % 0 lf 1014,2 hPa 0,0 l/m 2 min 0 min 260 W/m 12,6 km/h (3 Bft) 94,83 %
27.05.2017 19:52 29,9 C 29,4 C 26,7 C 44 % 0 lf 1014,2 hPa 0,0 l/m 2 min 0 min 250 W/m 20,9 km/h (4 Bft) 94,29 %
27.05.2017 19:54 29,9 C 29,4 C 26,7 C 44 % 0 lf 1014,2 hPa 0,0 l/m 2 min 0 min 241 W/m 12,6 km/h (3 Bft) 95,74 %
27.05.2017 19:56 29,8 C 29,4 C 26,1 C 45 % 0 lf 1014,2 hPa 0,0 l/m 2 min 0 min 233 W/m 8,4 km/h (2 Bft) 95,74 %
27.05.2017 19:58 29,8 C 29,4 C 26,1 C 45 % 0 lf 1014,2 hPa 0,0 l/m 2 min 0 min 224 W/m 8,4 km/h (2 Bft) 93,62 %
27.05.2017 20:00 29,8 C 28,9 C 26,1 C 45 % 0 lf 1014,2 hPa 0,0 l/m 2 min 0 min 216 W/m 10,5 km/h (2 Bft) 93,62 %
27.05.2017 20:02 29,8 C 28,9 C 26,1 C 45 % 0 lf 1014,2 hPa 0,0 l/m 2 min 0 min 208 W/m 16,7 km/h (3 Bft) 93,62 %
27.05.2017 20:04 29,7 C 28,9 C 26,1 C 45 % 0 lf 1014,2 hPa 0,0 l/m 2 min 0 min 199 W/m 10,5 km/h (2 Bft) 95,65 %
27.05.2017 20:06 29,7 C 28,9 C 26,1 C 46 % 0 lf 1014,2 hPa 0,0 l/m 2 min 0 min 191 W/m 10,5 km/h (2 Bft) 89,36 %
27.05.2017 20:08 29,6 C 28,9 C 26,1 C 45 % 0 lf 1014,2 hPa 0,0 l/m 2 min 0 min 183 W/m 16,7 km/h (3 Bft) 93,62 %
27.05.2017 20:10 29,6 C 28,9 C 26,1 C 45 % 0 lf 1014,2 hPa 0,0 l/m 2 min 0 min 173 W/m 12,6 km/h (3 Bft) 95,74 %
27.05.2017 20:12 29,6 C 28,9 C 26,1 C 46 % 0 lf 1014,2 hPa 0,0 l/m 2 min 0 min 166 W/m 14,6 km/h (3 Bft) 95,74 %
27.05.2017 20:14 29,5 C 28,9 C 26,1 C 46 % 0 lf 1014,2 hPa 0,0 l/m 2 min 0 min 158 W/m 14,6 km/h (3 Bft) 95,74 %
27.05.2017 20:16 29,4 C 28,9 C 26,1 C 45 % 0 lf 1014,2 hPa 0,0 l/m 2 min 0 min 149 W/m 12,6 km/h (3 Bft) 91,30 %
27.05.2017 20:18 29,4 C 28,3 C 25,6 C 46 % 0 lf 1014,2 hPa 0,0 l/m 2 min 0 min 142 W/m 14,6 km/h (3 Bft) 95,74 %
27.05.2017 20:20 29,3 C 28,3 C 25,6 C 46 % 0 lf 1014,2 hPa 0,0 l/m 2 min 0 min 136 W/m 14,6 km/h (3 Bft) 95,74 %
27.05.2017 20:22 29,3 C 28,3 C 25,6 C 46 % 0 lf 1014,3 hPa 0,0 l/m 2 min 0 min 127 W/m 10,5 km/h (2 Bft) 97,87 %
27.05.2017 20:24 29,2 C 28,3 C 25,6 C 46 % 0 lf 1014,2 hPa 0,0 l/m 2 min 0 min 119 W/m 12,6 km/h (3 Bft) 91,49 %
27.05.2017 20:26 29,2 C 28,3 C 25,6 C 46 % 0 lf 1014,3 hPa 0,0 l/m 2 min 0 min 113 W/m 14,6 km/h (3 Bft) 97,87 %
27.05.2017 20:28 29,2 C 28,3 C 25,6 C 46 % 0 lf 1014,3 hPa 0,0 l/m 2 min 0 min 103 W/m 14,6 km/h (3 Bft) 93,48 %
27.05.2017 20:30 29,1 C 28,3 C 25,6 C 46 % 0 lf 1014,3 hPa 0,0 l/m 2 min 0 min 95 W/m 14,6 km/h (3 Bft) 100,00 %
27.05.2017 20:32 29,0 C 28,3 C 25,6 C 47 % 0 lf 1014,3 hPa 0,0 l/m 2 min 0 min 91 W/m 8,4 km/h (2 Bft) 100,00 %
27.05.2017 20:34 29,0 C 27,8 C 25,0 C 47 % 0 lf 1014,3 hPa 0,0 l/m 2 min 0 min 85 W/m 10,5 km/h (2 Bft) 100,00 %
27.05.2017 20:36 28,9 C 27,8 C 25,0 C 47 % 0 lf 1014,4 hPa 0,0 l/m 2 min 0 min 80 W/m 12,6 km/h (3 Bft) 96,36 %
27.05.2017 20:38 28,9 C 27,8 C 25,0 C 47 % 0 lf 1014,4 hPa 0,0 l/m 2 min 0 min 75 W/m 10,5 km/h (2 Bft) 100,00 %
27.05.2017 20:40 28,8 C 27,8 C 25,0 C 47 % 0 lf 1014,4 hPa 0,0 l/m 2 min 0 min 72 W/m 10,5 km/h (2 Bft) 93,62 %
27.05.2017 20:42 28,7 C 27,8 C 24,4 C 47 % 0 lf 1014,4 hPa 0,0 l/m 2 min 0 min 68 W/m 10,5 km/h (2 Bft) 97,87 %
27.05.2017 20:44 28,7 C 27,8 C 25,0 C 47 % 0 lf 1014,3 hPa 0,0 l/m 2 min 0 min 63 W/m 16,7 km/h (3 Bft) 100,00 %
27.05.2017 20:46 28,6 C 27,2 C 24,4 C 47 % 0 lf 1014,4 hPa 0,0 l/m 2 min 0 min 60 W/m 12,6 km/h (3 Bft) 97,87 %
27.05.2017 20:48 28,6 C 27,2 C 24,4 C 48 % 0 lf 1014,4 hPa 0,0 l/m 2 min 0 min 57 W/m 14,6 km/h (3 Bft) 100,00 %
27.05.2017 20:50 28,5 C 27,2 C 24,4 C 48 % 0 lf 1014,4 hPa 0,0 l/m 2 min 0 min 54 W/m 14,6 km/h (3 Bft) 97,87 %
27.05.2017 20:52 28,4 C 27,2 C 24,4 C 48 % 0 lf 1014,5 hPa 0,0 l/m 2 min 0 min 49 W/m 8,4 km/h (2 Bft) 100,00 %
27.05.2017 20:54 28,4 C 27,2 C 23,9 C 48 % 0 lf 1014,5 hPa 0,0 l/m 2 min 0 min 46 W/m 10,5 km/h (2 Bft) 97,83 %
27.05.2017 20:56 28,3 C 27,2 C 24,4 C 48 % 0 lf 1014,6 hPa 0,0 l/m 2 min 0 min 42 W/m 8,4 km/h (2 Bft) 95,74 %
27.05.2017 20:58 28,3 C 27,2 C 24,4 C 48 % 0 lf 1014,5 hPa 0,0 l/m 2 min 0 min 39 W/m 10,5 km/h (2 Bft) 97,87 %
27.05.2017 21:00 28,2 C 27,2 C 23,9 C 48 % 0 lf 1014,5 hPa 0,0 l/m 2 min 0 min 36 W/m 12,6 km/h (3 Bft) 97,87 %
27.05.2017 21:02 28,2 C 26,7 C 23,9 C 48 % 0 lf 1014,6 hPa 0,0 l/m 2 min 0 min 33 W/m 12,6 km/h (3 Bft) 93,75 %
27.05.2017 21:04 28,1 C 26,7 C 23,9 C 49 % 0 lf 1014,6 hPa 0,0 l/m 2 min 0 min 30 W/m 8,4 km/h (2 Bft) 95,74 %
27.05.2017 21:06 28,1 C 26,7 C 23,9 C 49 % 0 lf 1014,6 hPa 0,0 l/m 2 min 0 min 27 W/m 6,3 km/h (2 Bft) 93,75 %
27.05.2017 21:08 28,0 C 26,7 C 23,3 C 49 % 0 lf 1014,6 hPa 0,0 l/m 2 min 0 min 24 W/m 8,4 km/h (2 Bft) 93,62 %
27.05.2017 21:10 27,9 C 26,7 C 23,3 C 49 % 0 lf 1014,6 hPa 0,0 l/m 2 min 0 min 22 W/m 8,4 km/h (2 Bft) 95,74 %
27.05.2017 21:12 27,9 C 26,7 C 23,3 C 49 % 0 lf 1014,7 hPa 0,0 l/m 2 min 0 min 20 W/m 8,4 km/h (2 Bft) 88,57 %
27.05.2017 21:14 27,8 C 26,7 C 23,3 C 49 % 0 lf 1014,7 hPa 0,0 l/m 0 min 0 min 18 W/m 8,4 km/h (2 Bft) 95,74 %
27.05.2017 21:16 27,8 C 26,1 C 22,8 C 49 % 0 lf 1014,6 hPa 0,0 l/m 0 min 0 min 16 W/m 8,4 km/h (2 Bft) 93,48 %
27.05.2017 21:18 27,7 C 26,1 C 22,8 C 49 % 0 lf 1014,6 hPa 0,0 l/m 0 min 0 min 11 W/m 6,3 km/h (2 Bft) 95,74 %
27.05.2017 21:20 27,7 C 26,1 C 22,8 C 50 % 0 lf 1014,7 hPa 0,0 l/m 0 min 0 min 9 W/m 6,3 km/h (2 Bft) 93,62 %
27.05.2017 21:22 27,6 C 26,1 C 22,8 C 50 % 0 lf 1014,8 hPa 0,0 l/m 0 min 0 min 8 W/m 6,3 km/h (2 Bft) 93,62 %
27.05.2017 21:24 27,5 C 26,1 C 22,2 C 50 % 0 lf 1014,8 hPa 0,0 l/m 0 min 0 min 7 W/m 4,2 km/h (1 Bft) 95,74 %
27.05.2017 21:26 27,4 C 26,1 C 22,2 C 50 % 0 lf 1014,8 hPa 0,0 l/m 0 min 0 min 7 W/m 4,2 km/h (1 Bft) 95,65 %
27.05.2017 21:28 27,4 C 26,1 C 22,2 C 50 % 0 lf 1014,8 hPa 0,0 l/m 0 min 0 min 6 W/m 6,3 km/h (2 Bft) 95,74 %
27.05.2017 21:30 27,3 C 25,6 C 21,7 C 50 % 0 lf 1014,8 hPa 0,0 l/m 0 min 0 min 5 W/m 6,3 km/h (2 Bft) 93,62 %
27.05.2017 21:32 27,3 C 25,6 C 21,7 C 50 % 0 lf 1014,8 hPa 0,0 l/m 0 min 0 min 5 W/m 6,3 km/h (2 Bft) 97,87 %
27.05.2017 21:34 27,2 C 25,6 C 21,1 C 51 % 0 lf 1014,8 hPa 0,0 l/m 0 min 0 min 5 W/m 6,3 km/h (2 Bft) 95,74 %
27.05.2017 21:36 27,2 C 25,6 C 21,1 C 51 % 0 lf 1014,9 hPa 0,0 l/m 0 min 0 min 3 W/m 4,2 km/h (1 Bft) 94,83 %
27.05.2017 21:38 27,1 C 25,6 C 21,1 C 51 % 0 lf 1015,0 hPa 0,0 l/m 0 min 0 min 0 W/m 4,2 km/h (1 Bft) 97,87 %
27.05.2017 21:40 27,1 C 25,0 C 21,1 C 51 % 0 lf 1015,0 hPa 0,0 l/m 0 min 0 min 0 W/m 4,2 km/h (1 Bft) 97,87 %
27.05.2017 21:42 27,0 C 25,0 C 21,1 C 52 % 0 lf 1015,0 hPa 0,0 l/m 0 min 0 min 0 W/m 4,2 km/h (1 Bft) 97,14 %
27.05.2017 21:44 26,9 C 25,0 C 21,1 C 52 % 0 lf 1015,0 hPa 0,0 l/m 0 min 0 min 0 W/m 4,2 km/h (1 Bft) 97,87 %
27.05.2017 21:46 26,9 C 25,0 C 20,6 C 52 % 0 lf 1015,0 hPa 0,0 l/m 0 min 0 min 0 W/m 4,2 km/h (1 Bft) 97,87 %
27.05.2017 21:48 26,8 C 25,0 C 20,6 C 52 % 0 lf 1015,1 hPa 0,0 l/m 0 min 0 min 0 W/m 4,2 km/h (1 Bft) 97,87 %
27.05.2017 21:50 26,7 C 25,0 C 20,6 C 52 % 0 lf 1015,1 hPa 0,0 l/m 0 min 0 min 0 W/m 4,2 km/h (1 Bft) 96,55 %
27.05.2017 21:52 26,7 C 25,0 C 20,6 C 52 % 0 lf 1015,1 hPa 0,0 l/m 0 min 0 min 0 W/m 4,2 km/h (1 Bft) 94,29 %
27.05.2017 21:54 26,6 C 25,0 C 20,6 C 52 % 0 lf 1015,1 hPa 0,0 l/m 0 min 0 min 0 W/m 6,3 km/h (2 Bft) 97,87 %
27.05.2017 21:56 26,5 C 24,4 C 20,6 C 53 % 0 lf 1015,1 hPa 0,0 l/m 0 min 0 min 0 W/m 4,2 km/h (1 Bft) 93,62 %
27.05.2017 21:58 26,4 C 24,4 C 20,6 C 53 % 0 lf 1015,1 hPa 0,0 l/m 0 min 0 min 0 W/m 6,3 km/h (2 Bft) 97,87 %
27.05.2017 22:00 26,4 C 24,4 C 20,6 C 53 % 0 lf 1015,2 hPa 0,0 l/m 0 min 0 min 0 W/m 4,2 km/h (1 Bft) 97,87 %
27.05.2017 22:02 26,3 C 24,4 C 20,6 C 53 % 0 lf 1015,2 hPa 0,0 l/m 0 min 0 min 0 W/m 4,2 km/h (1 Bft) 95,65 %
27.05.2017 22:04 26,2 C 24,4 C 20,0 C 53 % 0 lf 1015,2 hPa 0,0 l/m 0 min 0 min 0 W/m 4,2 km/h (1 Bft) 100,00 %
27.05.2017 22:06 26,2 C 24,4 C 20,0 C 54 % 0 lf 1015,3 hPa 0,0 l/m 0 min 0 min 0 W/m 4,2 km/h (1 Bft) 97,87 %
27.05.2017 22:08 26,1 C 24,4 C 20,0 C 54 % 0 lf 1015,3 hPa 0,0 l/m 0 min 0 min 0 W/m 4,2 km/h (1 Bft) 100,00 %
27.05.2017 22:10 26,0 C 24,4 C 20,0 C 54 % 0 lf 1015,3 hPa 0,0 l/m 0 min 0 min 0 W/m 6,3 km/h (2 Bft) 100,00 %
27.05.2017 22:12 25,9 C 24,4 C 20,0 C 54 % 0 lf 1015,3 hPa 0,0 l/m 0 min 0 min 0 W/m 4,2 km/h (1 Bft) 96,23 %
27.05.2017 22:14 25,9 C 24,4 C 20,0 C 54 % 0 lf 1015,3 hPa 0,0 l/m 0 min 0 min 0 W/m 6,3 km/h (2 Bft) 100,00 %
27.05.2017 22:16 25,8 C 24,4 C 20,0 C 55 % 0 lf 1015,3 hPa 0,0 l/m 0 min 0 min 0 W/m 8,4 km/h (2 Bft) 100,00 %
27.05.2017 22:18 25,7 C 24,4 C 20,6 C 55 % 0 lf 1015,4 hPa 0,0 l/m 0 min 0 min 0 W/m 6,3 km/h (2 Bft) 97,83 %
27.05.2017 22:20 25,6 C 24,4 C 20,6 C 55 % 0 lf 1015,4 hPa 0,0 l/m 0 min 0 min 0 W/m 8,4 km/h (2 Bft) 97,87 %
27.05.2017 22:22 25,5 C 23,9 C 20,6 C 55 % 0 lf 1015,4 hPa 0,0 l/m 0 min 0 min 0 W/m 6,3 km/h (2 Bft) 97,87 %
27.05.2017 22:24 25,4 C 23,9 C 20,6 C 55 % 0 lf 1015,4 hPa 0,0 l/m 0 min 0 min 0 W/m 6,3 km/h (2 Bft) 95,74 %
27.05.2017 22:26 25,4 C 23,9 C 20,6 C 55 % 0 lf 1015,5 hPa 0,0 l/m 0 min 0 min 0 W/m 6,3 km/h (2 Bft) 93,62 %
27.05.2017 22:28 25,3 C 23,9 C 20,6 C 56 % 0 lf 1015,5 hPa 0,0 l/m 0 min 0 min 0 W/m 8,4 km/h (2 Bft) 97,83 %
27.05.2017 22:30 25,2 C 23,9 C 20,6 C 56 % 0 lf 1015,5 hPa 0,0 l/m 0 min 0 min 0 W/m 6,3 km/h (2 Bft) 97,87 %
27.05.2017 22:32 25,2 C 23,9 C 20,6 C 56 % 0 lf 1015,6 hPa 0,0 l/m 0 min 0 min 0 W/m 6,3 km/h (2 Bft) 95,83 %
27.05.2017 22:34 25,1 C 23,9 C 20,6 C 56 % 0 lf 1015,6 hPa 0,0 l/m 0 min 0 min 0 W/m 8,4 km/h (2 Bft) 97,87 %
27.05.2017 22:36 25,1 C 24,4 C 21,1 C 56 % 0 lf 1015,6 hPa 0,0 l/m 0 min 0 min 0 W/m 8,4 km/h (2 Bft) 96,00 %
27.05.2017 22:38 25,0 C 24,4 C 21,1 C 56 % 0 lf 1015,6 hPa 0,0 l/m 0 min 0 min 0 W/m 8,4 km/h (2 Bft) 97,87 %
27.05.2017 22:40 24,9 C 23,9 C 21,1 C 56 % 0 lf 1015,6 hPa 0,0 l/m 0 min 0 min 0 W/m 10,5 km/h (2 Bft) 95,65 %
27.05.2017 22:42 24,9 C 23,9 C 21,1 C 56 % 0 lf 1015,6 hPa 0,0 l/m 0 min 0 min 0 W/m 8,4 km/h (2 Bft) 93,75 %
27.05.2017 22:44 24,9 C 23,9 C 21,1 C 56 % 0 lf 1015,6 hPa 0,0 l/m 0 min 0 min 0 W/m 8,4 km/h (2 Bft) 95,74 %
27.05.2017 22:46 24,8 C 23,9 C 21,1 C 56 % 0 lf 1015,6 hPa 0,0 l/m 0 min 0 min 0 W/m 10,5 km/h (2 Bft) 91,49 %
27.05.2017 22:48 24,8 C 23,9 C 21,1 C 56 % 0 lf 1015,6 hPa 0,0 l/m 0 min 0 min 0 W/m 8,4 km/h (2 Bft) 95,74 %
27.05.2017 22:50 24,7 C 23,9 C 21,1 C 56 % 0 lf 1015,6 hPa 0,0 l/m 0 min 0 min 0 W/m 8,4 km/h (2 Bft) 93,48 %
27.05.2017 22:52 24,7 C 23,9 C 21,1 C 56 % 0 lf 1015,6 hPa 0,0 l/m 0 min 0 min 0 W/m 8,4 km/h (2 Bft) 93,62 %
27.05.2017 22:54 24,7 C 23,9 C 21,1 C 56 % 0 lf 1015,6 hPa 0,0 l/m 0 min 0 min 0 W/m 10,5 km/h (2 Bft) 95,74 %
27.05.2017 22:56 24,6 C 23,9 C 21,1 C 56 % 0 lf 1015,6 hPa 0,0 l/m 0 min 0 min 0 W/m 10,5 km/h (2 Bft) 89,36 %
27.05.2017 22:58 24,6 C 23,9 C 21,1 C 57 % 0 lf 1015,5 hPa 0,0 l/m 0 min 0 min 0 W/m 10,5 km/h (2 Bft) 97,87 %
27.05.2017 23:00 24,6 C 23,9 C 21,1 C 57 % 0 lf 1015,5 hPa 0,0 l/m 0 min 0 min 0 W/m 6,3 km/h (2 Bft) 95,74 %
27.05.2017 23:02 24,5 C 23,9 C 20,6 C 56 % 0 lf 1015,5 hPa 0,0 l/m 0 min 0 min 0 W/m 10,5 km/h (2 Bft) 93,62 %
27.05.2017 23:04 24,5 C 23,9 C 20,6 C 57 % 0 lf 1015,6 hPa 0,0 l/m 0 min 0 min 0 W/m 8,4 km/h (2 Bft) 95,74 %
27.05.2017 23:06 24,4 C 23,9 C 20,6 C 57 % 0 lf 1015,5 hPa 0,0 l/m 0 min 0 min 0 W/m 10,5 km/h (2 Bft) 95,74 %
27.05.2017 23:08 24,4 C 23,9 C 20,6 C 57 % 0 lf 1015,5 hPa 0,0 l/m 0 min 0 min 0 W/m 8,4 km/h (2 Bft) 95,65 %
27.05.2017 23:10 24,4 C 23,9 C 20,6 C 57 % 0 lf 1015,5 hPa 0,0 l/m 0 min 0 min 0 W/m 8,4 km/h (2 Bft) 95,74 %
27.05.2017 23:12 24,3 C 23,9 C 21,1 C 57 % 0 lf 1015,5 hPa 0,0 l/m 0 min 0 min 0 W/m 10,5 km/h (2 Bft) 93,62 %
27.05.2017 23:14 24,3 C 23,9 C 21,1 C 57 % 0 lf 1015,5 hPa 0,0 l/m 0 min 0 min 0 W/m 8,4 km/h (2 Bft) 95,74 %
27.05.2017 23:16 24,3 C 23,9 C 21,1 C 57 % 0 lf 1015,5 hPa 0,0 l/m 0 min 0 min 0 W/m 8,4 km/h (2 Bft) 95,74 %
27.05.2017 23:18 24,2 C 23,9 C 21,1 C 57 % 0 lf 1015,5 hPa 0,0 l/m 0 min 0 min 0 W/m 8,4 km/h (2 Bft) 95,74 %
27.05.2017 23:20 24,2 C 23,9 C 21,1 C 57 % 0 lf 1015,5 hPa 0,0 l/m 0 min 0 min 0 W/m 6,3 km/h (2 Bft) 95,74 %
27.05.2017 23:22 24,2 C 23,9 C 21,1 C 57 % 0 lf 1015,4 hPa 0,0 l/m 0 min 0 min 0 W/m 8,4 km/h (2 Bft) 95,65 %
27.05.2017 23:24 24,2 C 23,9 C 21,1 C 57 % 0 lf 1015,4 hPa 0,0 l/m 0 min 0 min 0 W/m 8,4 km/h (2 Bft) 93,62 %
27.05.2017 23:26 24,2 C 23,9 C 21,1 C 57 % 0 lf 1015,4 hPa 0,0 l/m 0 min 0 min 0 W/m 10,5 km/h (2 Bft) 97,87 %
27.05.2017 23:28 24,1 C 23,9 C 21,1 C 57 % 0 lf 1015,4 hPa 0,0 l/m 0 min 0 min 0 W/m 10,5 km/h (2 Bft) 95,74 %
27.05.2017 23:30 24,1 C 23,9 C 21,1 C 57 % 0 lf 1015,4 hPa 0,0 l/m 0 min 0 min 0 W/m 8,4 km/h (2 Bft) 91,49 %
27.05.2017 23:32 24,1 C 23,3 C 21,1 C 57 % 0 lf 1015,5 hPa 0,0 l/m 0 min 0 min 0 W/m 6,3 km/h (2 Bft) 94,29 %
27.05.2017 23:34 24,1 C 23,3 C 20,6 C 57 % 0 lf 1015,5 hPa 0,0 l/m 0 min 0 min 0 W/m 4,2 km/h (1 Bft) 95,74 %
27.05.2017 23:36 24,1 C 23,3 C 20,6 C 58 % 0 lf 1015,4 hPa 0,0 l/m 0 min 0 min 0 W/m 8,4 km/h (2 Bft) 95,65 %
27.05.2017 23:38 24,0 C 23,3 C 20,6 C 58 % 0 lf 1015,4 hPa 0,0 l/m 0 min 0 min 0 W/m 6,3 km/h (2 Bft) 97,87 %
27.05.2017 23:40 24,0 C 23,3 C 20,6 C 58 % 0 lf 1015,4 hPa 0,0 l/m 0 min 0 min 0 W/m 6,3 km/h (2 Bft) 97,87 %
27.05.2017 23:42 23,9 C 23,3 C 20,0 C 58 % 0 lf 1015,4 hPa 0,0 l/m 0 min 0 min 0 W/m 4,2 km/h (1 Bft) 95,74 %
27.05.2017 23:44 23,9 C 22,8 C 20,0 C 58 % 0 lf 1015,4 hPa 0,0 l/m 0 min 0 min 0 W/m 4,2 km/h (1 Bft) 100,00 %
27.05.2017 23:46 23,9 C 22,8 C 19,4 C 58 % 0 lf 1015,4 hPa 0,0 l/m 0 min 0 min 0 W/m 2,1 km/h (1 Bft) 100,00 %
27.05.2017 23:48 23,9 C 22,8 C 19,4 C 58 % 0 lf 1015,4 hPa 0,0 l/m 0 min 0 min 0 W/m 4,2 km/h (1 Bft) 100,00 %
27.05.2017 23:50 23,9 C 22,2 C 19,4 C 58 % 0 lf 1015,5 hPa 0,0 l/m 0 min 0 min 0 W/m 6,3 km/h (2 Bft) 97,87 %
27.05.2017 23:52 23,8 C 22,2 C 19,4 C 59 % 0 lf 1015,7 hPa 0,0 l/m 0 min 0 min 0 W/m 8,4 km/h (2 Bft) 100,00 %
27.05.2017 23:54 23,8 C 22,8 C 19,4 C 59 % 0 lf 1015,7 hPa 0,0 l/m 0 min 0 min 0 W/m 8,4 km/h (2 Bft) 97,87 %
27.05.2017 23:56 23,7 C 22,8 C 20,0 C 59 % 0 lf 1015,7 hPa 0,0 l/m 0 min 0 min 0 W/m 4,2 km/h (1 Bft) 100,00 %
27.05.2017 23:58 23,7 C 22,8 C 20,0 C 59 % 0 lf 1015,8 hPa 0,0 l/m 0 min 0 min 0 W/m 8,4 km/h (2 Bft) 97,87 %
_ Min-Zeit 06:18 05:42 05:36 17:28 00:00 19:12 - - - - 05:38 11:36
Minimum _ 16,1 C 15,0 C 12,8 C 36 % 0 lf 1014,1 hPa - - - - 0,0 km/h (0 Bft) 83,33 %
_ Max-Zeit 17:20 12:34 15:20 06:50 00:00 06:32 00:00 09:43 00:00 13:42 11:32 00:22
Maximum _ 32,4 C 36,7 C 42,2 C 83 % 0 lf 1018,1 hPa 0,0 l/m 3 min 0 min 853 W/m 39,7 km/h
N (6 Bft)
100,00 %
Durchschnitt _ 24,8 C 26,3 C 24,4 C 58 % 0 lf 1016,3 hPa #0,0 l/m #15:32 h #0 min. 516 W/m 16,8 km/h (3 Bft) 96,19 %
© 2017 W. Hausmann